Wetterdaten: Freitag, 08.08.2014
Datum Zeit Temp. Aussen +5cm Feuchte Auss Luftdruck Regen Sonnenschein Regendauer UV Solar Windben
08.08.2014 00:00 18,1 C 16,1 C 92 % 1015,2 hPa 0,0 l/m 0 min 0 min 0,0 UV-I 0 W/m 0,0 km/h (0 Bft)
08.08.2014 00:02 18,1 C 16,1 C 92 % 1015,2 hPa 0,0 l/m 0 min 0 min 0,0 UV-I 0 W/m 0,0 km/h (0 Bft)
08.08.2014 00:05 18,1 C 16,1 C 92 % 1015,2 hPa 0,0 l/m 0 min 0 min 0,0 UV-I 0 W/m 0,0 km/h (0 Bft)
08.08.2014 00:06 18,1 C 16,1 C 92 % 1015,2 hPa 0,0 l/m 0 min 0 min 0,0 UV-I 0 W/m 0,0 km/h (0 Bft)
08.08.2014 00:08 18,1 C 16,1 C 93 % 1015,2 hPa 0,0 l/m 0 min 0 min 0,0 UV-I 0 W/m 0,0 km/h (0 Bft)
08.08.2014 00:10 18,1 C 16,1 C 93 % 1015,1 hPa 0,0 l/m 0 min 0 min 0,0 UV-I 0 W/m 0,0 km/h (0 Bft)
08.08.2014 00:12 18,1 C 16,1 C 93 % 1015,2 hPa 0,0 l/m 0 min 0 min 0,0 UV-I 0 W/m 0,0 km/h (0 Bft)
08.08.2014 00:14 18,1 C 16,1 C 93 % 1015,2 hPa 0,0 l/m 0 min 0 min 0,0 UV-I 0 W/m 0,0 km/h (0 Bft)
08.08.2014 00:16 18,1 C 16,1 C 93 % 1015,1 hPa 0,0 l/m 0 min 0 min 0,0 UV-I 0 W/m 0,0 km/h (0 Bft)
08.08.2014 00:18 18,1 C 16,1 C 93 % 1015,2 hPa 0,0 l/m 0 min 0 min 0,0 UV-I 0 W/m 0,0 km/h (0 Bft)
08.08.2014 00:20 18,1 C 16,1 C 93 % 1015,2 hPa 0,0 l/m 0 min 0 min 0,0 UV-I 0 W/m 0,0 km/h (0 Bft)
08.08.2014 00:22 18,1 C 16,1 C 93 % 1015,2 hPa 0,0 l/m 0 min 0 min 0,0 UV-I 0 W/m 0,0 km/h (0 Bft)
08.08.2014 00:24 18,1 C 16,1 C 93 % 1015,2 hPa 0,0 l/m 0 min 0 min 0,0 UV-I 0 W/m 0,0 km/h (0 Bft)
08.08.2014 00:26 18,1 C 16,1 C 93 % 1015,2 hPa 0,0 l/m 0 min 0 min 0,0 UV-I 0 W/m 0,0 km/h (0 Bft)
08.08.2014 00:28 18,1 C 16,1 C 93 % 1015,2 hPa 0,0 l/m 0 min 0 min 0,0 UV-I 0 W/m 0,0 km/h (0 Bft)
08.08.2014 00:30 18,1 C 16,1 C 93 % 1015,1 hPa 0,0 l/m 0 min 0 min 0,0 UV-I 0 W/m 0,0 km/h (0 Bft)
08.08.2014 00:32 18,1 C 16,1 C 93 % 1015,2 hPa 0,0 l/m 0 min 0 min 0,0 UV-I 0 W/m 0,0 km/h (0 Bft)
08.08.2014 00:34 18,0 C 16,1 C 93 % 1015,1 hPa 0,0 l/m 0 min 0 min 0,0 UV-I 0 W/m 0,0 km/h (0 Bft)
08.08.2014 00:36 18,1 C 16,1 C 93 % 1015,2 hPa 0,0 l/m 0 min 0 min 0,0 UV-I 0 W/m 0,0 km/h (0 Bft)
08.08.2014 00:38 18,0 C 16,1 C 93 % 1015,1 hPa 0,0 l/m 0 min 0 min 0,0 UV-I 0 W/m 0,0 km/h (0 Bft)
08.08.2014 00:40 18,0 C 16,1 C 93 % 1015,1 hPa 0,0 l/m 0 min 0 min 0,0 UV-I 0 W/m 0,0 km/h (0 Bft)
08.08.2014 00:42 18,0 C 16,1 C 93 % 1015,2 hPa 0,0 l/m 0 min 0 min 0,0 UV-I 0 W/m 0,0 km/h (0 Bft)
08.08.2014 00:44 18,1 C 16,1 C 93 % 1015,2 hPa 0,0 l/m 0 min 0 min 0,0 UV-I 0 W/m 0,0 km/h (0 Bft)
08.08.2014 00:46 18,1 C 16,1 C 93 % 1015,2 hPa 0,0 l/m 0 min 0 min 0,0 UV-I 0 W/m 0,0 km/h (0 Bft)
08.08.2014 00:48 18,1 C 16,7 C 93 % 1015,1 hPa 0,0 l/m 0 min 0 min 0,0 UV-I 0 W/m 0,0 km/h (0 Bft)
08.08.2014 00:50 18,1 C 16,7 C 93 % 1015,2 hPa 0,0 l/m 0 min 0 min 0,0 UV-I 0 W/m 0,0 km/h (0 Bft)
08.08.2014 00:52 18,1 C 16,7 C 93 % 1015,1 hPa 0,0 l/m 0 min 0 min 0,0 UV-I 0 W/m 0,0 km/h (0 Bft)
08.08.2014 00:54 18,1 C 16,7 C 93 % 1015,1 hPa 0,0 l/m 0 min 0 min 0,0 UV-I 0 W/m 0,0 km/h (0 Bft)
08.08.2014 00:56 18,1 C 16,7 C 93 % 1015,0 hPa 0,0 l/m 0 min 0 min 0,0 UV-I 0 W/m 0,0 km/h (0 Bft)
08.08.2014 00:58 18,1 C 16,7 C 93 % 1015,0 hPa 0,0 l/m 0 min 0 min 0,0 UV-I 0 W/m 0,0 km/h (0 Bft)
08.08.2014 01:00 18,1 C 16,7 C 93 % 1015,0 hPa 0,0 l/m 0 min 0 min 0,0 UV-I 0 W/m 0,0 km/h (0 Bft)
08.08.2014 01:02 18,1 C 16,7 C 93 % 1015,0 hPa 0,0 l/m 0 min 0 min 0,0 UV-I 0 W/m 0,0 km/h (0 Bft)
08.08.2014 01:04 18,1 C 16,7 C 93 % 1015,0 hPa 0,0 l/m 0 min 0 min 0,0 UV-I 0 W/m 0,0 km/h (0 Bft)
08.08.2014 01:06 18,1 C 16,7 C 93 % 1014,9 hPa 0,0 l/m 0 min 0 min 0,0 UV-I 0 W/m 0,0 km/h (0 Bft)
08.08.2014 01:08 18,1 C 16,7 C 93 % 1015,0 hPa 0,0 l/m 0 min 0 min 0,0 UV-I 0 W/m 0,0 km/h (0 Bft)
08.08.2014 01:10 18,1 C 16,7 C 93 % 1014,9 hPa 0,0 l/m 0 min 0 min 0,0 UV-I 0 W/m 0,0 km/h (0 Bft)
08.08.2014 01:12 18,1 C 16,7 C 93 % 1015,0 hPa 0,0 l/m 0 min 0 min 0,0 UV-I 0 W/m 0,0 km/h (0 Bft)
08.08.2014 01:14 18,1 C 16,7 C 93 % 1015,0 hPa 0,0 l/m 0 min 0 min 0,0 UV-I 0 W/m 0,0 km/h (0 Bft)
08.08.2014 01:16 18,1 C 16,7 C 93 % 1015,0 hPa 0,0 l/m 0 min 0 min 0,0 UV-I 0 W/m 0,0 km/h (0 Bft)
08.08.2014 01:18 18,1 C 16,7 C 93 % 1015,0 hPa 0,0 l/m 0 min 0 min 0,0 UV-I 0 W/m 0,0 km/h (0 Bft)
08.08.2014 01:20 18,1 C 16,7 C 93 % 1014,9 hPa 0,0 l/m 0 min 0 min 0,0 UV-I 0 W/m 0,0 km/h (0 Bft)
08.08.2014 01:22 18,1 C 16,7 C 93 % 1014,9 hPa 0,0 l/m 0 min 0 min 0,0 UV-I 0 W/m 0,0 km/h (0 Bft)
08.08.2014 01:24 18,1 C 16,7 C 93 % 1015,0 hPa 0,0 l/m 0 min 0 min 0,0 UV-I 0 W/m 0,0 km/h (0 Bft)
08.08.2014 01:26 18,1 C 16,7 C 93 % 1015,1 hPa 0,0 l/m 0 min 0 min 0,0 UV-I 0 W/m 0,0 km/h (0 Bft)
08.08.2014 01:28 18,1 C 16,7 C 93 % 1015,1 hPa 0,0 l/m 0 min 0 min 0,0 UV-I 0 W/m 0,0 km/h (0 Bft)
08.08.2014 01:30 18,1 C 16,7 C 93 % 1015,1 hPa 0,0 l/m 0 min 0 min 0,0 UV-I 0 W/m 0,0 km/h (0 Bft)
08.08.2014 01:32 18,1 C 16,7 C 93 % 1015,1 hPa 0,0 l/m 0 min 0 min 0,0 UV-I 0 W/m 0,0 km/h (0 Bft)
08.08.2014 01:34 18,1 C 16,1 C 93 % 1015,1 hPa 0,0 l/m 0 min 0 min 0,0 UV-I 0 W/m 0,0 km/h (0 Bft)
08.08.2014 01:36 18,1 C 16,1 C 93 % 1015,0 hPa 0,0 l/m 0 min 0 min 0,0 UV-I 0 W/m 0,0 km/h (0 Bft)
08.08.2014 01:38 18,0 C 16,1 C 93 % 1015,1 hPa 0,0 l/m 0 min 0 min 0,0 UV-I 0 W/m 0,0 km/h (0 Bft)
08.08.2014 01:40 17,9 C 16,1 C 93 % 1015,1 hPa 0,0 l/m 0 min 0 min 0,0 UV-I 0 W/m 0,0 km/h (0 Bft)
08.08.2014 01:42 17,9 C 16,1 C 94 % 1015,1 hPa 0,0 l/m 0 min 0 min 0,0 UV-I 0 W/m 0,0 km/h (0 Bft)
08.08.2014 01:44 17,9 C 16,1 C 94 % 1015,0 hPa 0,0 l/m 0 min 0 min 0,0 UV-I 0 W/m 0,0 km/h (0 Bft)
08.08.2014 01:46 17,8 C 16,1 C 94 % 1015,1 hPa 0,0 l/m 0 min 0 min 0,0 UV-I 0 W/m 0,0 km/h (0 Bft)
08.08.2014 01:48 17,8 C 16,1 C 94 % 1015,0 hPa 0,0 l/m 0 min 0 min 0,0 UV-I 0 W/m 0,0 km/h (0 Bft)
08.08.2014 01:50 17,8 C 16,1 C 94 % 1015,1 hPa 0,0 l/m 0 min 0 min 0,0 UV-I 0 W/m 0,0 km/h (0 Bft)
08.08.2014 01:52 17,8 C 16,1 C 94 % 1015,1 hPa 0,0 l/m 0 min 0 min 0,0 UV-I 0 W/m 0,0 km/h (0 Bft)
08.08.2014 01:54 17,8 C 16,1 C 94 % 1015,2 hPa 0,0 l/m 0 min 0 min 0,0 UV-I 0 W/m 0,0 km/h (0 Bft)
08.08.2014 01:56 17,9 C 16,1 C 94 % 1015,1 hPa 0,0 l/m 0 min 0 min 0,0 UV-I 0 W/m 0,0 km/h (0 Bft)
08.08.2014 01:58 17,9 C 16,1 C 94 % 1015,2 hPa 0,0 l/m 0 min 0 min 0,0 UV-I 0 W/m 0,0 km/h (0 Bft)
08.08.2014 02:00 17,9 C 16,1 C 94 % 1015,1 hPa 0,0 l/m 0 min 0 min 0,0 UV-I 0 W/m 0,0 km/h (0 Bft)
08.08.2014 02:02 17,9 C 16,1 C 94 % 1015,1 hPa 0,0 l/m 0 min 0 min 0,0 UV-I 0 W/m 0,0 km/h (0 Bft)
08.08.2014 02:04 17,9 C 16,1 C 94 % 1015,0 hPa 0,0 l/m 0 min 0 min 0,0 UV-I 0 W/m 0,0 km/h (0 Bft)
08.08.2014 02:06 18,0 C 16,1 C 93 % 1015,0 hPa 0,0 l/m 0 min 0 min 0,0 UV-I 0 W/m 10,7 km/h (2 Bft)
08.08.2014 02:08 18,0 C 16,1 C 93 % 1015,0 hPa 0,0 l/m 0 min 0 min 0,0 UV-I 0 W/m 0,0 km/h (0 Bft)
08.08.2014 02:10 18,1 C 16,1 C 93 % 1014,9 hPa 0,0 l/m 0 min 0 min 0,0 UV-I 0 W/m 0,0 km/h (0 Bft)
08.08.2014 02:12 18,0 C 16,1 C 93 % 1014,9 hPa 0,0 l/m 0 min 0 min 0,0 UV-I 0 W/m 0,0 km/h (0 Bft)
08.08.2014 02:14 18,0 C 16,1 C 93 % 1014,9 hPa 0,0 l/m 0 min 0 min 0,0 UV-I 0 W/m 0,0 km/h (0 Bft)
08.08.2014 02:16 18,0 C 16,1 C 93 % 1014,8 hPa 0,0 l/m 0 min 0 min 0,0 UV-I 0 W/m 0,0 km/h (0 Bft)
08.08.2014 02:18 18,1 C 16,1 C 93 % 1014,8 hPa 0,0 l/m 0 min 0 min 0,0 UV-I 0 W/m 0,0 km/h (0 Bft)
08.08.2014 02:20 18,1 C 16,1 C 93 % 1014,7 hPa 0,0 l/m 0 min 0 min 0,0 UV-I 0 W/m 14,2 km/h (3 Bft)
08.08.2014 02:22 18,1 C 16,1 C 93 % 1014,7 hPa 0,0 l/m 0 min 0 min 0,0 UV-I 0 W/m 3,5 km/h (1 Bft)
08.08.2014 02:24 18,1 C 16,1 C 93 % 1014,7 hPa 0,0 l/m 0 min 0 min 0,0 UV-I 0 W/m 0,0 km/h (0 Bft)
08.08.2014 02:26 18,1 C 16,1 C 93 % 1014,7 hPa 0,0 l/m 0 min 0 min 0,0 UV-I 0 W/m 14,2 km/h (3 Bft)
08.08.2014 02:28 18,1 C 16,7 C 93 % 1014,7 hPa 0,0 l/m 0 min 0 min 0,0 UV-I 0 W/m 10,7 km/h (2 Bft)
08.08.2014 02:30 18,1 C 16,7 C 93 % 1014,7 hPa 0,0 l/m 0 min 0 min 0,0 UV-I 0 W/m 7,1 km/h (2 Bft)
08.08.2014 02:32 18,1 C 16,7 C 93 % 1014,7 hPa 0,0 l/m 0 min 0 min 0,0 UV-I 0 W/m 10,7 km/h (2 Bft)
08.08.2014 02:34 18,1 C 16,7 C 92 % 1014,7 hPa 0,0 l/m 0 min 0 min 0,0 UV-I 0 W/m 7,1 km/h (2 Bft)
08.08.2014 02:36 18,1 C 16,7 C 92 % 1014,7 hPa 0,0 l/m 0 min 0 min 0,0 UV-I 0 W/m 7,1 km/h (2 Bft)
08.08.2014 02:38 18,1 C 16,7 C 92 % 1014,8 hPa 0,0 l/m 0 min 0 min 0,0 UV-I 0 W/m 0,0 km/h (0 Bft)
08.08.2014 02:40 18,1 C 16,7 C 92 % 1014,8 hPa 0,0 l/m 0 min 0 min 0,0 UV-I 0 W/m 0,0 km/h (0 Bft)
08.08.2014 02:42 18,1 C 16,1 C 92 % 1014,8 hPa 0,0 l/m 0 min 0 min 0,0 UV-I 0 W/m 0,0 km/h (0 Bft)
08.08.2014 02:44 18,0 C 16,1 C 92 % 1014,8 hPa 0,0 l/m 0 min 0 min 0,0 UV-I 0 W/m 10,7 km/h (2 Bft)
08.08.2014 02:46 18,1 C 16,7 C 92 % 1014,8 hPa 0,0 l/m 0 min 0 min 0,0 UV-I 0 W/m 0,0 km/h (0 Bft)
08.08.2014 02:48 18,1 C 16,7 C 92 % 1014,8 hPa 0,0 l/m 0 min 0 min 0,0 UV-I 0 W/m 0,0 km/h (0 Bft)
08.08.2014 02:50 18,0 C 16,7 C 92 % 1014,8 hPa 0,0 l/m 0 min 0 min 0,0 UV-I 0 W/m 3,5 km/h (1 Bft)
08.08.2014 02:52 18,0 C 16,1 C 92 % 1014,7 hPa 0,0 l/m 0 min 0 min 0,0 UV-I 0 W/m 0,0 km/h (0 Bft)
08.08.2014 02:54 18,0 C 16,1 C 92 % 1014,7 hPa 0,0 l/m 0 min 0 min 0,0 UV-I 0 W/m 0,0 km/h (0 Bft)
08.08.2014 02:56 18,0 C 16,1 C 92 % 1014,8 hPa 0,0 l/m 0 min 0 min 0,0 UV-I 0 W/m 0,0 km/h (0 Bft)
08.08.2014 02:58 18,0 C 16,1 C 92 % 1014,8 hPa 0,0 l/m 0 min 0 min 0,0 UV-I 0 W/m 0,0 km/h (0 Bft)
08.08.2014 03:00 17,9 C 16,1 C 92 % 1014,7 hPa 0,0 l/m 0 min 0 min 0,0 UV-I 0 W/m 0,0 km/h (0 Bft)
08.08.2014 03:02 17,9 C 16,1 C 92 % 1014,8 hPa 0,0 l/m 0 min 0 min 0,0 UV-I 0 W/m 0,0 km/h (0 Bft)
08.08.2014 03:04 17,9 C 16,1 C 92 % 1014,7 hPa 0,0 l/m 0 min 0 min 0,0 UV-I 0 W/m 0,0 km/h (0 Bft)
08.08.2014 03:06 17,9 C 16,1 C 92 % 1014,7 hPa 0,0 l/m 0 min 0 min 0,0 UV-I 0 W/m 0,0 km/h (0 Bft)
08.08.2014 03:08 17,9 C 16,1 C 92 % 1014,7 hPa 0,0 l/m 0 min 0 min 0,0 UV-I 0 W/m 0,0 km/h (0 Bft)
08.08.2014 03:10 17,8 C 16,1 C 92 % 1014,7 hPa 0,0 l/m 0 min 0 min 0,0 UV-I 0 W/m 0,0 km/h (0 Bft)
08.08.2014 03:12 17,8 C 16,1 C 92 % 1014,7 hPa 0,0 l/m 0 min 0 min 0,0 UV-I 0 W/m 0,0 km/h (0 Bft)
08.08.2014 03:14 17,8 C 16,1 C 93 % 1014,7 hPa 0,0 l/m 0 min 0 min 0,0 UV-I 0 W/m 0,0 km/h (0 Bft)
08.08.2014 03:16 17,7 C 15,6 C 93 % 1014,8 hPa 0,0 l/m 0 min 0 min 0,0 UV-I 0 W/m 0,0 km/h (0 Bft)
08.08.2014 03:18 17,7 C 15,6 C 93 % 1014,9 hPa 0,0 l/m 0 min 0 min 0,0 UV-I 0 W/m 0,0 km/h (0 Bft)
08.08.2014 03:20 17,7 C 15,6 C 93 % 1014,8 hPa 0,0 l/m 0 min 0 min 0,0 UV-I 0 W/m 3,5 km/h (1 Bft)
08.08.2014 03:22 17,7 C 15,6 C 93 % 1014,7 hPa 0,0 l/m 0 min 0 min 0,0 UV-I 0 W/m 0,0 km/h (0 Bft)
08.08.2014 03:24 17,6 C 15,6 C 93 % 1014,7 hPa 0,0 l/m 0 min 0 min 0,0 UV-I 0 W/m 0,0 km/h (0 Bft)
08.08.2014 03:26 17,5 C 15,6 C 93 % 1014,7 hPa 0,0 l/m 0 min 0 min 0,0 UV-I 0 W/m 0,0 km/h (0 Bft)
08.08.2014 03:28 17,5 C 15,6 C 93 % 1014,7 hPa 0,0 l/m 0 min 0 min 0,0 UV-I 0 W/m 0,0 km/h (0 Bft)
08.08.2014 03:30 17,4 C 15,6 C 93 % 1014,7 hPa 0,0 l/m 0 min 0 min 0,0 UV-I 0 W/m 0,0 km/h (0 Bft)
08.08.2014 03:32 17,4 C 15,6 C 93 % 1014,7 hPa 0,0 l/m 0 min 0 min 0,0 UV-I 0 W/m 0,0 km/h (0 Bft)
08.08.2014 03:34 17,4 C 15,6 C 93 % 1014,7 hPa 0,0 l/m 0 min 0 min 0,0 UV-I 0 W/m 0,0 km/h (0 Bft)
08.08.2014 03:36 17,3 C 15,6 C 93 % 1014,7 hPa 0,0 l/m 0 min 0 min 0,0 UV-I 0 W/m 0,0 km/h (0 Bft)
08.08.2014 03:38 17,3 C 15,6 C 94 % 1014,7 hPa 0,0 l/m 0 min 0 min 0,0 UV-I 0 W/m 0,0 km/h (0 Bft)
08.08.2014 03:40 17,3 C 15,6 C 94 % 1014,7 hPa 0,0 l/m 0 min 0 min 0,0 UV-I 0 W/m 0,0 km/h (0 Bft)
08.08.2014 03:42 17,2 C 15,6 C 94 % 1014,7 hPa 0,0 l/m 0 min 0 min 0,0 UV-I 0 W/m 0,0 km/h (0 Bft)
08.08.2014 03:44 17,2 C 15,6 C 94 % 1014,6 hPa 0,0 l/m 0 min 0 min 0,0 UV-I 0 W/m 0,0 km/h (0 Bft)
08.08.2014 03:46 17,2 C 15,6 C 94 % 1014,6 hPa 0,0 l/m 0 min 0 min 0,0 UV-I 0 W/m 0,0 km/h (0 Bft)
08.08.2014 03:48 17,2 C 15,6 C 94 % 1014,5 hPa 0,0 l/m 0 min 0 min 0,0 UV-I 0 W/m 0,0 km/h (0 Bft)
08.08.2014 03:50 17,2 C 15,6 C 94 % 1014,5 hPa 0,0 l/m 0 min 0 min 0,0 UV-I 0 W/m 0,0 km/h (0 Bft)
08.08.2014 03:52 17,2 C 15,6 C 94 % 1014,5 hPa 0,0 l/m 0 min 0 min 0,0 UV-I 0 W/m 0,0 km/h (0 Bft)
08.08.2014 03:54 17,2 C 15,6 C 94 % 1014,5 hPa 0,0 l/m 0 min 0 min 0,0 UV-I 0 W/m 0,0 km/h (0 Bft)
08.08.2014 03:56 17,2 C 15,6 C 94 % 1014,5 hPa 0,0 l/m 0 min 0 min 0,0 UV-I 0 W/m 0,0 km/h (0 Bft)
08.08.2014 03:58 17,1 C 15,6 C 95 % 1014,4 hPa 0,0 l/m 0 min 0 min 0,0 UV-I 0 W/m 0,0 km/h (0 Bft)
08.08.2014 04:00 17,1 C 15,6 C 95 % 1014,4 hPa 0,0 l/m 0 min 0 min 0,0 UV-I 0 W/m 0,0 km/h (0 Bft)
08.08.2014 04:02 17,1 C 15,6 C 95 % 1014,4 hPa 0,0 l/m 0 min 0 min 0,0 UV-I 0 W/m 0,0 km/h (0 Bft)
08.08.2014 04:04 17,1 C 15,6 C 95 % 1014,4 hPa 0,0 l/m 0 min 0 min 0,0 UV-I 0 W/m 0,0 km/h (0 Bft)
08.08.2014 04:06 17,1 C 15,6 C 95 % 1014,4 hPa 0,0 l/m 0 min 0 min 0,0 UV-I 0 W/m 0,0 km/h (0 Bft)
08.08.2014 04:08 17,0 C 15,6 C 95 % 1014,3 hPa 0,0 l/m 0 min 0 min 0,0 UV-I 0 W/m 0,0 km/h (0 Bft)
08.08.2014 04:10 17,0 C 15,0 C 95 % 1014,3 hPa 0,0 l/m 0 min 0 min 0,0 UV-I 0 W/m 0,0 km/h (0 Bft)
08.08.2014 04:12 16,9 C 15,0 C 95 % 1014,3 hPa 0,0 l/m 0 min 0 min 0,0 UV-I 0 W/m 0,0 km/h (0 Bft)
08.08.2014 04:14 16,9 C 15,0 C 95 % 1014,4 hPa 0,0 l/m 0 min 0 min 0,0 UV-I 0 W/m 0,0 km/h (0 Bft)
08.08.2014 04:16 16,9 C 15,0 C 95 % 1014,3 hPa 0,0 l/m 0 min 0 min 0,0 UV-I 0 W/m 0,0 km/h (0 Bft)
08.08.2014 04:18 16,9 C 15,0 C 95 % 1014,3 hPa 0,0 l/m 0 min 0 min 0,0 UV-I 0 W/m 0,0 km/h (0 Bft)
08.08.2014 04:20 16,9 C 15,0 C 95 % 1014,3 hPa 0,0 l/m 0 min 0 min 0,0 UV-I 0 W/m 0,0 km/h (0 Bft)
08.08.2014 04:22 16,8 C 15,0 C 95 % 1014,3 hPa 0,0 l/m 0 min 0 min 0,0 UV-I 0 W/m 0,0 km/h (0 Bft)
08.08.2014 04:24 16,7 C 15,0 C 95 % 1014,3 hPa 0,0 l/m 0 min 0 min 0,0 UV-I 0 W/m 0,0 km/h (0 Bft)
08.08.2014 04:26 16,7 C 15,0 C 95 % 1014,3 hPa 0,0 l/m 0 min 0 min 0,0 UV-I 0 W/m 0,0 km/h (0 Bft)
08.08.2014 04:28 16,7 C 15,0 C 95 % 1014,3 hPa 0,0 l/m 0 min 0 min 0,0 UV-I 0 W/m 0,0 km/h (0 Bft)
08.08.2014 04:30 16,7 C 15,0 C 95 % 1014,3 hPa 0,0 l/m 0 min 0 min 0,0 UV-I 0 W/m 0,0 km/h (0 Bft)
08.08.2014 04:32 16,8 C 15,0 C 96 % 1014,3 hPa 0,0 l/m 0 min 0 min 0,0 UV-I 0 W/m 0,0 km/h (0 Bft)
08.08.2014 04:34 16,8 C 15,0 C 96 % 1014,3 hPa 0,0 l/m 0 min 0 min 0,0 UV-I 0 W/m 0,0 km/h (0 Bft)
08.08.2014 04:36 16,8 C 15,0 C 96 % 1014,3 hPa 0,0 l/m 0 min 0 min 0,0 UV-I 0 W/m 0,0 km/h (0 Bft)
08.08.2014 04:38 16,8 C 15,6 C 96 % 1014,3 hPa 0,0 l/m 0 min 0 min 0,0 UV-I 0 W/m 0,0 km/h (0 Bft)
08.08.2014 04:40 16,9 C 15,6 C 96 % 1014,3 hPa 0,0 l/m 0 min 0 min 0,0 UV-I 0 W/m 0,0 km/h (0 Bft)
08.08.2014 04:42 16,9 C 15,6 C 96 % 1014,3 hPa 0,0 l/m 0 min 0 min 0,0 UV-I 0 W/m 0,0 km/h (0 Bft)
08.08.2014 04:44 16,9 C 15,6 C 96 % 1014,3 hPa 0,0 l/m 0 min 0 min 0,0 UV-I 0 W/m 0,0 km/h (0 Bft)
08.08.2014 04:46 16,9 C 15,6 C 96 % 1014,3 hPa 0,0 l/m 0 min 0 min 0,0 UV-I 0 W/m 0,0 km/h (0 Bft)
08.08.2014 04:48 16,9 C 15,6 C 96 % 1014,2 hPa 0,0 l/m 0 min 0 min 0,0 UV-I 0 W/m 0,0 km/h (0 Bft)
08.08.2014 04:50 16,9 C 15,6 C 96 % 1014,2 hPa 0,0 l/m 0 min 0 min 0,0 UV-I 0 W/m 0,0 km/h (0 Bft)
08.08.2014 04:52 16,9 C 15,6 C 96 % 1014,2 hPa 0,0 l/m 0 min 0 min 0,0 UV-I 0 W/m 0,0 km/h (0 Bft)
08.08.2014 04:54 16,9 C 15,6 C 96 % 1014,2 hPa 0,0 l/m 0 min 0 min 0,0 UV-I 0 W/m 0,0 km/h (0 Bft)
08.08.2014 04:56 16,8 C 15,6 C 96 % 1014,1 hPa 0,0 l/m 0 min 0 min 0,0 UV-I 0 W/m 0,0 km/h (0 Bft)
08.08.2014 04:58 16,8 C 15,6 C 96 % 1014,1 hPa 0,0 l/m 0 min 0 min 0,0 UV-I 0 W/m 0,0 km/h (0 Bft)
08.08.2014 05:00 16,8 C 15,6 C 96 % 1014,1 hPa 0,0 l/m 0 min 0 min 0,0 UV-I 0 W/m 0,0 km/h (0 Bft)
08.08.2014 05:02 16,8 C 15,6 C 96 % 1014,1 hPa 0,0 l/m 0 min 0 min 0,0 UV-I 0 W/m 0,0 km/h (0 Bft)
08.08.2014 05:04 16,8 C 15,0 C 96 % 1014,1 hPa 0,0 l/m 0 min 0 min 0,0 UV-I 0 W/m 3,5 km/h (1 Bft)
08.08.2014 05:06 16,8 C 15,0 C 96 % 1014,1 hPa 0,0 l/m 0 min 0 min 0,0 UV-I 0 W/m 0,0 km/h (0 Bft)
08.08.2014 05:08 16,8 C 15,6 C 96 % 1014,1 hPa 0,0 l/m 0 min 0 min 0,0 UV-I 0 W/m 0,0 km/h (0 Bft)
08.08.2014 05:10 16,8 C 15,0 C 96 % 1014,1 hPa 0,0 l/m 0 min 0 min 0,0 UV-I 0 W/m 10,7 km/h (2 Bft)
08.08.2014 05:12 16,8 C 15,0 C 96 % 1014,1 hPa 0,0 l/m 0 min 0 min 0,0 UV-I 0 W/m 0,0 km/h (0 Bft)
08.08.2014 05:14 16,8 C 15,0 C 96 % 1014,1 hPa 0,0 l/m 0 min 0 min 0,0 UV-I 0 W/m 3,5 km/h (1 Bft)
08.08.2014 05:16 16,9 C 15,0 C 96 % 1014,1 hPa 0,0 l/m 0 min 0 min 0,0 UV-I 0 W/m 0,0 km/h (0 Bft)
08.08.2014 05:18 16,9 C 15,6 C 96 % 1014,1 hPa 0,0 l/m 0 min 0 min 0,0 UV-I 0 W/m 3,5 km/h (1 Bft)
08.08.2014 05:20 16,9 C 15,6 C 96 % 1014,1 hPa 0,0 l/m 0 min 0 min 0,0 UV-I 0 W/m 0,0 km/h (0 Bft)
08.08.2014 05:22 16,9 C 15,6 C 96 % 1014,1 hPa 0,0 l/m 0 min 0 min 0,0 UV-I 0 W/m 0,0 km/h (0 Bft)
08.08.2014 05:24 16,9 C 15,6 C 96 % 1014,1 hPa 0,0 l/m 0 min 0 min 0,0 UV-I 0 W/m 0,0 km/h (0 Bft)
08.08.2014 05:26 16,9 C 15,6 C 96 % 1014,1 hPa 0,0 l/m 0 min 0 min 0,0 UV-I 0 W/m 0,0 km/h (0 Bft)
08.08.2014 05:28 16,9 C 15,6 C 96 % 1014,1 hPa 0,0 l/m 0 min 0 min 0,0 UV-I 0 W/m 0,0 km/h (0 Bft)
08.08.2014 05:30 16,8 C 15,6 C 96 % 1014,1 hPa 0,0 l/m 0 min 0 min 0,0 UV-I 0 W/m 0,0 km/h (0 Bft)
08.08.2014 05:32 16,8 C 15,6 C 96 % 1014,1 hPa 0,0 l/m 0 min 0 min 0,0 UV-I 0 W/m 0,0 km/h (0 Bft)
08.08.2014 05:34 16,8 C 15,6 C 95 % 1014,0 hPa 0,0 l/m 0 min 0 min 0,0 UV-I 0 W/m 0,0 km/h (0 Bft)
08.08.2014 05:36 16,8 C 15,0 C 96 % 1014,0 hPa 0,0 l/m 0 min 0 min 0,0 UV-I 0 W/m 0,0 km/h (0 Bft)
08.08.2014 05:38 16,7 C 15,0 C 96 % 1014,0 hPa 0,0 l/m 0 min 0 min 0,0 UV-I 0 W/m 0,0 km/h (0 Bft)
08.08.2014 05:40 16,7 C 15,0 C 96 % 1014,0 hPa 0,0 l/m 0 min 0 min 0,0 UV-I 0 W/m 0,0 km/h (0 Bft)
08.08.2014 05:42 16,7 C 15,0 C 96 % 1014,0 hPa 0,0 l/m 0 min 0 min 0,0 UV-I 0 W/m 0,0 km/h (0 Bft)
08.08.2014 05:44 16,7 C 15,0 C 96 % 1014,0 hPa 0,0 l/m 0 min 0 min 0,0 UV-I 0 W/m 0,0 km/h (0 Bft)
08.08.2014 05:46 16,7 C 15,0 C 96 % 1014,0 hPa 0,0 l/m 0 min 0 min 0,0 UV-I 0 W/m 0,0 km/h (0 Bft)
08.08.2014 05:48 16,7 C 15,0 C 96 % 1014,0 hPa 0,0 l/m 0 min 0 min 0,0 UV-I 0 W/m 0,0 km/h (0 Bft)
08.08.2014 05:50 16,7 C 15,0 C 96 % 1013,9 hPa 0,0 l/m 0 min 0 min 0,0 UV-I 0 W/m 0,0 km/h (0 Bft)
08.08.2014 05:52 16,6 C 15,0 C 96 % 1014,0 hPa 0,0 l/m 0 min 0 min 0,0 UV-I 0 W/m 0,0 km/h (0 Bft)
08.08.2014 05:54 16,6 C 15,0 C 96 % 1014,0 hPa 0,0 l/m 0 min 0 min 0,0 UV-I 0 W/m 0,0 km/h (0 Bft)
08.08.2014 05:56 16,6 C 15,0 C 96 % 1014,0 hPa 0,0 l/m 0 min 0 min 0,0 UV-I 0 W/m 0,0 km/h (0 Bft)
08.08.2014 05:58 16,5 C 15,0 C 96 % 1014,0 hPa 0,0 l/m 0 min 0 min 0,0 UV-I 0 W/m 0,0 km/h (0 Bft)
08.08.2014 06:00 16,5 C 15,0 C 96 % 1014,0 hPa 0,0 l/m 0 min 0 min 0,0 UV-I 0 W/m 0,0 km/h (0 Bft)
08.08.2014 06:02 16,5 C 15,0 C 96 % 1014,0 hPa 0,0 l/m 0 min 0 min 0,0 UV-I 0 W/m 0,0 km/h (0 Bft)
08.08.2014 06:05 16,5 C 15,0 C 96 % 1014,0 hPa 0,0 l/m 0 min 0 min 0,0 UV-I 0 W/m 0,0 km/h (0 Bft)
08.08.2014 06:06 16,5 C 15,0 C 96 % 1014,0 hPa 0,0 l/m 0 min 0 min 0,0 UV-I 0 W/m 0,0 km/h (0 Bft)
08.08.2014 06:08 16,5 C 15,0 C 96 % 1013,9 hPa 0,0 l/m 0 min 0 min 0,0 UV-I 0 W/m 0,0 km/h (0 Bft)
08.08.2014 06:10 16,5 C 15,0 C 96 % 1014,0 hPa 0,0 l/m 0 min 0 min 0,0 UV-I 0 W/m 0,0 km/h (0 Bft)
08.08.2014 06:12 16,5 C 15,0 C 96 % 1014,0 hPa 0,0 l/m 0 min 0 min 0,0 UV-I 0 W/m 0,0 km/h (0 Bft)
08.08.2014 06:14 16,5 C 15,0 C 96 % 1014,0 hPa 0,0 l/m 0 min 0 min 0,0 UV-I 0 W/m 0,0 km/h (0 Bft)
08.08.2014 06:16 16,4 C 15,0 C 96 % 1014,0 hPa 0,0 l/m 0 min 0 min 0,0 UV-I 7 W/m 0,0 km/h (0 Bft)
08.08.2014 06:18 16,5 C 15,0 C 96 % 1014,0 hPa 0,0 l/m 0 min 0 min 0,0 UV-I 7 W/m 0,0 km/h (0 Bft)
08.08.2014 06:20 16,5 C 15,0 C 96 % 1013,9 hPa 0,0 l/m 0 min 0 min 0,0 UV-I 9 W/m 0,0 km/h (0 Bft)
08.08.2014 06:22 16,5 C 15,0 C 96 % 1014,0 hPa 0,0 l/m 0 min 0 min 0,0 UV-I 9 W/m 0,0 km/h (0 Bft)
08.08.2014 06:24 16,5 C 15,0 C 96 % 1014,0 hPa 0,0 l/m 0 min 0 min 0,0 UV-I 10 W/m 3,5 km/h (1 Bft)
08.08.2014 06:26 16,5 C 15,0 C 97 % 1014,0 hPa 0,0 l/m 0 min 0 min 0,0 UV-I 11 W/m 10,7 km/h (2 Bft)
08.08.2014 06:28 16,5 C 15,0 C 97 % 1013,9 hPa 0,0 l/m 0 min 0 min 0,0 UV-I 11 W/m 17,7 km/h (3 Bft)
08.08.2014 06:30 16,5 C 15,0 C 97 % 1013,9 hPa 0,0 l/m 0 min 0 min 0,0 UV-I 12 W/m 17,7 km/h (3 Bft)
08.08.2014 06:32 16,5 C 15,0 C 97 % 1013,7 hPa 0,0 l/m 0 min 0 min 0,0 UV-I 12 W/m 17,7 km/h (3 Bft)
08.08.2014 06:34 16,6 C 15,0 C 97 % 1013,8 hPa 0,0 l/m 0 min 0 min 0,0 UV-I 12 W/m 17,7 km/h (3 Bft)
08.08.2014 06:36 16,6 C 15,6 C 97 % 1013,8 hPa 0,0 l/m 0 min 0 min 0,0 UV-I 12 W/m 24,7 km/h (4 Bft)
08.08.2014 06:38 16,6 C 15,6 C 97 % 1013,7 hPa 0,0 l/m 0 min 0 min 0,0 UV-I 14 W/m 7,1 km/h (2 Bft)
08.08.2014 06:40 16,5 C 15,0 C 97 % 1013,7 hPa 0,0 l/m 0 min 0 min 0,0 UV-I 15 W/m 3,5 km/h (1 Bft)
08.08.2014 06:42 16,5 C 15,0 C 97 % 1013,7 hPa 0,0 l/m 0 min 0 min 0,0 UV-I 16 W/m 3,5 km/h (1 Bft)
08.08.2014 06:44 16,5 C 15,0 C 97 % 1013,7 hPa 0,0 l/m 0 min 0 min 0,0 UV-I 17 W/m 10,7 km/h (2 Bft)
08.08.2014 06:46 16,5 C 15,0 C 97 % 1013,6 hPa 0,0 l/m 0 min 0 min 0,0 UV-I 18 W/m 14,2 km/h (3 Bft)
08.08.2014 06:48 16,5 C 15,0 C 97 % 1013,6 hPa 0,0 l/m 0 min 0 min 0,0 UV-I 20 W/m 14,2 km/h (3 Bft)
08.08.2014 06:50 16,5 C 15,0 C 97 % 1013,6 hPa 0,0 l/m 0 min 0 min 0,0 UV-I 22 W/m 14,2 km/h (3 Bft)
08.08.2014 06:52 16,5 C 15,0 C 97 % 1013,7 hPa 0,0 l/m 0 min 0 min 0,0 UV-I 25 W/m 0,0 km/h (0 Bft)
08.08.2014 06:54 16,5 C 15,0 C 97 % 1013,7 hPa 0,0 l/m 0 min 0 min 0,0 UV-I 29 W/m 10,7 km/h (2 Bft)
08.08.2014 06:56 16,5 C 15,0 C 97 % 1013,7 hPa 0,0 l/m 0 min 0 min 0,0 UV-I 34 W/m 0,0 km/h (0 Bft)
08.08.2014 06:58 16,5 C 15,6 C 97 % 1013,8 hPa 0,0 l/m 0 min 0 min 0,0 UV-I 40 W/m 0,0 km/h (0 Bft)
08.08.2014 07:00 16,6 C 15,6 C 97 % 1013,7 hPa 0,0 l/m 0 min 0 min 0,0 UV-I 48 W/m 10,7 km/h (2 Bft)
08.08.2014 07:02 16,6 C 15,6 C 97 % 1013,6 hPa 0,0 l/m 2 min 0 min 0,0 UV-I 64 W/m 10,7 km/h (2 Bft)
08.08.2014 07:04 16,6 C 15,6 C 97 % 1013,6 hPa 0,0 l/m 2 min 0 min 0,0 UV-I 102 W/m 10,7 km/h (2 Bft)
08.08.2014 07:06 16,7 C 15,6 C 97 % 1013,6 hPa 0,0 l/m 2 min 0 min 0,0 UV-I 114 W/m 7,1 km/h (2 Bft)
08.08.2014 07:08 16,7 C 15,6 C 97 % 1013,6 hPa 0,0 l/m 2 min 0 min 0,0 UV-I 125 W/m 0,0 km/h (0 Bft)
08.08.2014 07:10 16,8 C 16,1 C 97 % 1013,6 hPa 0,0 l/m 2 min 0 min 0,0 UV-I 134 W/m 14,2 km/h (3 Bft)
08.08.2014 07:12 16,9 C 16,1 C 97 % 1013,6 hPa 0,0 l/m 2 min 0 min 0,0 UV-I 145 W/m 14,2 km/h (3 Bft)
08.08.2014 07:14 17,0 C 16,1 C 97 % 1013,6 hPa 0,0 l/m 2 min 0 min 0,0 UV-I 148 W/m 10,7 km/h (2 Bft)
08.08.2014 07:16 17,1 C 16,7 C 97 % 1013,6 hPa 0,0 l/m 2 min 0 min 0,0 UV-I 147 W/m 14,2 km/h (3 Bft)
08.08.2014 07:18 17,2 C 16,7 C 96 % 1013,6 hPa 0,0 l/m 2 min 0 min 0,0 UV-I 155 W/m 14,2 km/h (3 Bft)
08.08.2014 07:20 17,3 C 16,7 C 96 % 1013,6 hPa 0,0 l/m 2 min 0 min 0,0 UV-I 164 W/m 10,7 km/h (2 Bft)
08.08.2014 07:22 17,4 C 16,7 C 96 % 1013,6 hPa 0,0 l/m 2 min 0 min 0,0 UV-I 174 W/m 0,0 km/h (0 Bft)
08.08.2014 07:24 17,4 C 16,7 C 96 % 1013,5 hPa 0,0 l/m 2 min 0 min 0,0 UV-I 185 W/m 0,0 km/h (0 Bft)
08.08.2014 07:26 17,6 C 16,7 C 96 % 1013,6 hPa 0,0 l/m 2 min 0 min 0,0 UV-I 189 W/m 14,2 km/h (3 Bft)
08.08.2014 07:28 17,6 C 17,2 C 96 % 1013,5 hPa 0,0 l/m 2 min 0 min 0,0 UV-I 138 W/m 14,2 km/h (3 Bft)
08.08.2014 07:30 17,7 C 17,2 C 95 % 1013,5 hPa 0,0 l/m 2 min 0 min 0,0 UV-I 104 W/m 14,2 km/h (3 Bft)
08.08.2014 07:32 17,7 C 17,2 C 95 % 1013,5 hPa 0,0 l/m 0 min 0 min 0,0 UV-I 92 W/m 21,3 km/h (4 Bft)
08.08.2014 07:34 17,7 C 16,7 C 94 % 1013,5 hPa 0,0 l/m 0 min 0 min 0,0 UV-I 85 W/m 17,7 km/h (3 Bft)
08.08.2014 07:36 17,7 C 16,7 C 94 % 1013,5 hPa 0,0 l/m 0 min 0 min 0,0 UV-I 82 W/m 24,7 km/h (4 Bft)
08.08.2014 07:38 17,8 C 17,2 C 93 % 1013,5 hPa 0,0 l/m 0 min 0 min 0,0 UV-I 79 W/m 17,7 km/h (3 Bft)
08.08.2014 07:40 17,8 C 17,2 C 93 % 1013,5 hPa 0,0 l/m 0 min 0 min 0,0 UV-I 76 W/m 24,7 km/h (4 Bft)
08.08.2014 07:42 17,8 C 17,2 C 93 % 1013,5 hPa 0,0 l/m 0 min 0 min 0,0 UV-I 76 W/m 21,3 km/h (4 Bft)
08.08.2014 07:44 17,9 C 17,2 C 93 % 1013,5 hPa 0,0 l/m 0 min 0 min 0,0 UV-I 77 W/m 21,3 km/h (4 Bft)
08.08.2014 07:46 17,9 C 17,2 C 93 % 1013,5 hPa 0,0 l/m 0 min 0 min 0,0 UV-I 80 W/m 17,7 km/h (3 Bft)
08.08.2014 07:48 17,9 C 17,2 C 93 % 1013,4 hPa 0,0 l/m 0 min 0 min 0,0 UV-I 83 W/m 14,2 km/h (3 Bft)
08.08.2014 07:50 17,9 C 17,2 C 93 % 1013,4 hPa 0,0 l/m 0 min 0 min 0,0 UV-I 85 W/m 10,7 km/h (2 Bft)
08.08.2014 07:52 17,9 C 17,2 C 92 % 1013,5 hPa 0,0 l/m 0 min 0 min 0,0 UV-I 86 W/m 21,3 km/h (4 Bft)
08.08.2014 07:54 18,0 C 17,2 C 92 % 1013,4 hPa 0,0 l/m 0 min 0 min 0,0 UV-I 87 W/m 14,2 km/h (3 Bft)
08.08.2014 07:56 18,0 C 17,2 C 92 % 1013,4 hPa 0,0 l/m 0 min 0 min 0,0 UV-I 90 W/m 21,3 km/h (4 Bft)
08.08.2014 07:58 18,0 C 17,2 C 92 % 1013,4 hPa 0,0 l/m 0 min 0 min 0,0 UV-I 93 W/m 21,3 km/h (4 Bft)
08.08.2014 08:00 18,1 C 17,2 C 92 % 1013,4 hPa 0,0 l/m 0 min 0 min 0,0 UV-I 93 W/m 14,2 km/h (3 Bft)
08.08.2014 08:02 18,1 C 17,2 C 92 % 1013,4 hPa 0,0 l/m 0 min 0 min 0,0 UV-I 91 W/m 14,2 km/h (3 Bft)
08.08.2014 08:04 18,1 C 17,2 C 92 % 1013,5 hPa 0,0 l/m 0 min 0 min 0,0 UV-I 90 W/m 17,7 km/h (3 Bft)
08.08.2014 08:06 18,1 C 17,2 C 92 % 1013,5 hPa 0,0 l/m 0 min 0 min 0,0 UV-I 89 W/m 10,7 km/h (2 Bft)
08.08.2014 08:08 18,1 C 17,2 C 92 % 1013,5 hPa 0,0 l/m 0 min 0 min 0,0 UV-I 88 W/m 3,5 km/h (1 Bft)
08.08.2014 08:10 18,2 C 17,2 C 92 % 1013,5 hPa 0,0 l/m 0 min 0 min 0,0 UV-I 94 W/m 0,0 km/h (0 Bft)
08.08.2014 08:12 18,2 C 17,2 C 92 % 1013,4 hPa 0,0 l/m 0 min 0 min 0,0 UV-I 103 W/m 3,5 km/h (1 Bft)
08.08.2014 08:14 18,2 C 17,2 C 93 % 1013,4 hPa 0,0 l/m 0 min 0 min 0,0 UV-I 114 W/m 0,0 km/h (0 Bft)
08.08.2014 08:16 18,2 C 17,2 C 93 % 1013,4 hPa 0,0 l/m 0 min 0 min 0,0 UV-I 122 W/m 0,0 km/h (0 Bft)
08.08.2014 08:18 18,3 C 17,8 C 93 % 1013,4 hPa 0,0 l/m 0 min 0 min 0,0 UV-I 125 W/m 10,7 km/h (2 Bft)
08.08.2014 08:20 18,3 C 17,8 C 93 % 1013,4 hPa 0,0 l/m 0 min 0 min 0,0 UV-I 121 W/m 3,5 km/h (1 Bft)
08.08.2014 08:22 18,3 C 17,8 C 93 % 1013,4 hPa 0,0 l/m 0 min 0 min 0,0 UV-I 116 W/m 0,0 km/h (0 Bft)
08.08.2014 08:24 18,4 C 17,8 C 92 % 1013,4 hPa 0,0 l/m 0 min 0 min 0,0 UV-I 116 W/m 3,5 km/h (1 Bft)
08.08.2014 08:26 18,4 C 17,8 C 92 % 1013,4 hPa 0,0 l/m 0 min 0 min 0,0 UV-I 121 W/m 24,7 km/h (4 Bft)
08.08.2014 08:28 18,4 C 17,8 C 92 % 1013,4 hPa 0,0 l/m 0 min 0 min 0,0 UV-I 132 W/m 21,3 km/h (4 Bft)
08.08.2014 08:30 18,4 C 17,8 C 92 % 1013,4 hPa 0,0 l/m 0 min 0 min 0,0 UV-I 150 W/m 24,7 km/h (4 Bft)
08.08.2014 08:32 18,4 C 17,8 C 92 % 1013,3 hPa 0,0 l/m 0 min 0 min 0,0 UV-I 170 W/m 14,2 km/h (3 Bft)
08.08.2014 08:34 18,5 C 17,8 C 92 % 1013,4 hPa 0,0 l/m 2 min 0 min 0,0 UV-I 181 W/m 21,3 km/h (4 Bft)
08.08.2014 08:36 18,6 C 18,3 C 92 % 1013,4 hPa 0,0 l/m 2 min 0 min 0,0 UV-I 189 W/m 7,1 km/h (2 Bft)
08.08.2014 08:38 18,7 C 18,3 C 92 % 1013,4 hPa 0,0 l/m 2 min 0 min 0,0 UV-I 241 W/m 17,7 km/h (3 Bft)
08.08.2014 08:40 18,7 C 18,3 C 92 % 1013,3 hPa 0,0 l/m 2 min 0 min 0,0 UV-I 348 W/m 28,2 km/h (4 Bft)
08.08.2014 08:42 18,9 C 18,3 C 92 % 1013,3 hPa 0,0 l/m 2 min 0 min 0,0 UV-I 318 W/m 17,7 km/h (3 Bft)
08.08.2014 08:44 19,1 C 18,3 C 91 % 1013,3 hPa 0,0 l/m 2 min 0 min 0,0 UV-I 249 W/m 21,3 km/h (4 Bft)
08.08.2014 08:46 19,1 C 18,9 C 91 % 1013,3 hPa 0,0 l/m 2 min 0 min 0,0 UV-I 269 W/m 10,7 km/h (2 Bft)
08.08.2014 08:48 19,2 C 18,9 C 90 % 1013,3 hPa 0,0 l/m 2 min 0 min 0,0 UV-I 253 W/m 21,3 km/h (4 Bft)
08.08.2014 08:50 19,3 C 18,9 C 90 % 1013,3 hPa 0,0 l/m 2 min 0 min 0,0 UV-I 219 W/m 21,3 km/h (4 Bft)
08.08.2014 08:52 19,3 C 18,9 C 89 % 1013,2 hPa 0,0 l/m 2 min 0 min 0,0 UV-I 232 W/m 14,2 km/h (3 Bft)
08.08.2014 08:54 19,3 C 18,9 C 89 % 1013,2 hPa 0,0 l/m 2 min 0 min 0,0 UV-I 220 W/m 10,7 km/h (2 Bft)
08.08.2014 08:56 19,4 C 18,9 C 89 % 1013,0 hPa 0,0 l/m 2 min 0 min 0,0 UV-I 244 W/m 14,2 km/h (3 Bft)
08.08.2014 08:58 19,6 C 18,9 C 89 % 1013,0 hPa 0,0 l/m 2 min 0 min 0,0 UV-I 271 W/m 24,7 km/h (4 Bft)
08.08.2014 09:00 19,6 C 18,9 C 88 % 1013,1 hPa 0,0 l/m 2 min 0 min 0,0 UV-I 230 W/m 14,2 km/h (3 Bft)
08.08.2014 09:02 19,7 C 18,9 C 88 % 1013,1 hPa 0,0 l/m 2 min 0 min 0,0 UV-I 215 W/m 14,2 km/h (3 Bft)
08.08.2014 09:04 19,7 C 18,9 C 88 % 1013,1 hPa 0,0 l/m 2 min 0 min 0,0 UV-I 228 W/m 21,3 km/h (4 Bft)
08.08.2014 09:06 19,7 C 18,9 C 87 % 1013,1 hPa 0,0 l/m 2 min 0 min 0,2 UV-I 298 W/m 17,7 km/h (3 Bft)
08.08.2014 09:08 19,8 C 19,4 C 87 % 1013,1 hPa 0,0 l/m 2 min 0 min 0,5 UV-I 313 W/m 21,3 km/h (4 Bft)
08.08.2014 09:10 19,8 C 19,4 C 87 % 1013,1 hPa 0,0 l/m 2 min 0 min 0,5 UV-I 276 W/m 21,3 km/h (4 Bft)
08.08.2014 09:12 19,9 C 19,4 C 87 % 1013,1 hPa 0,0 l/m 2 min 0 min 0,5 UV-I 283 W/m 24,7 km/h (4 Bft)
08.08.2014 09:14 20,0 C 19,4 C 87 % 1013,1 hPa 0,0 l/m 2 min 0 min 0,5 UV-I 268 W/m 31,7 km/h (5 Bft)
08.08.2014 09:16 20,0 C 19,4 C 86 % 1013,1 hPa 0,0 l/m 2 min 0 min 0,6 UV-I 295 W/m 31,7 km/h (5 Bft)
08.08.2014 09:18 20,1 C 19,4 C 86 % 1013,1 hPa 0,0 l/m 2 min 0 min 0,6 UV-I 322 W/m 28,2 km/h (4 Bft)
08.08.2014 09:20 20,1 C 19,4 C 86 % 1013,1 hPa 0,0 l/m 2 min 0 min 0,6 UV-I 281 W/m 28,2 km/h (4 Bft)
08.08.2014 09:22 20,1 C 19,4 C 86 % 1013,0 hPa 0,0 l/m 2 min 0 min 0,7 UV-I 290 W/m 35,4 km/h (5 Bft)
08.08.2014 09:24 20,1 C 19,4 C 86 % 1013,0 hPa 0,0 l/m 2 min 0 min 0,8 UV-I 305 W/m 21,3 km/h (4 Bft)
08.08.2014 09:26 20,2 C 19,4 C 86 % 1012,9 hPa 0,0 l/m 2 min 0 min 1,0 UV-I 431 W/m 17,7 km/h (3 Bft)
08.08.2014 09:28 20,4 C 19,4 C 86 % 1013,0 hPa 0,0 l/m 2 min 0 min 1,1 UV-I 536 W/m 24,7 km/h (4 Bft)
08.08.2014 09:30 20,5 C 19,4 C 85 % 1013,0 hPa 0,0 l/m 2 min 0 min 0,8 UV-I 337 W/m 28,2 km/h (4 Bft)
08.08.2014 09:32 20,4 C 19,4 C 84 % 1013,0 hPa 0,0 l/m 2 min 0 min 0,9 UV-I 279 W/m 28,2 km/h (4 Bft)
08.08.2014 09:34 20,4 C 19,4 C 85 % 1012,9 hPa 0,0 l/m 2 min 0 min 1,0 UV-I 388 W/m 21,3 km/h (4 Bft)
08.08.2014 09:36 20,5 C 19,4 C 85 % 1013,0 hPa 0,0 l/m 2 min 0 min 1,1 UV-I 377 W/m 21,3 km/h (4 Bft)
08.08.2014 09:38 20,6 C 19,4 C 85 % 1012,9 hPa 0,0 l/m 2 min 0 min 1,1 UV-I 366 W/m 24,7 km/h (4 Bft)
08.08.2014 09:40 20,7 C 19,4 C 85 % 1013,0 hPa 0,0 l/m 2 min 0 min 1,1 UV-I 436 W/m 31,7 km/h (5 Bft)
08.08.2014 09:42 20,7 C 20,0 C 84 % 1013,0 hPa 0,0 l/m 2 min 0 min 1,3 UV-I 464 W/m 24,7 km/h (4 Bft)
08.08.2014 09:44 20,7 C 20,0 C 84 % 1013,0 hPa 0,0 l/m 2 min 0 min 0,9 UV-I 429 W/m 24,7 km/h (4 Bft)
08.08.2014 09:46 20,8 C 20,6 C 84 % 1013,0 hPa 0,0 l/m 2 min 0 min 1,1 UV-I 292 W/m 24,7 km/h (4 Bft)
08.08.2014 09:48 21,0 C 20,6 C 84 % 1012,9 hPa 0,0 l/m 2 min 0 min 1,2 UV-I 480 W/m 21,3 km/h (4 Bft)
08.08.2014 09:50 21,0 C 20,6 C 84 % 1012,9 hPa 0,0 l/m 2 min 0 min 0,9 UV-I 285 W/m 28,2 km/h (4 Bft)
08.08.2014 09:52 21,0 C 20,6 C 84 % 1012,8 hPa 0,0 l/m 2 min 0 min 1,0 UV-I 275 W/m 24,7 km/h (4 Bft)
08.08.2014 09:54 20,9 C 20,6 C 84 % 1012,8 hPa 0,0 l/m 2 min 0 min 1,0 UV-I 275 W/m 24,7 km/h (4 Bft)
08.08.2014 09:56 20,8 C 20,6 C 83 % 1012,8 hPa 0,0 l/m 0 min 0 min 0,9 UV-I 251 W/m 21,3 km/h (4 Bft)
08.08.2014 09:58 20,8 C 20,0 C 84 % 1012,8 hPa 0,0 l/m 0 min 0 min 0,9 UV-I 237 W/m 21,3 km/h (4 Bft)
08.08.2014 10:00 20,9 C 20,0 C 84 % 1012,9 hPa 0,0 l/m 0 min 0 min 0,9 UV-I 235 W/m 24,7 km/h (4 Bft)
08.08.2014 10:02 21,0 C 20,6 C 85 % 1012,8 hPa 0,0 l/m 0 min 0 min 0,8 UV-I 237 W/m 17,7 km/h (3 Bft)
08.08.2014 10:04 21,1 C 20,6 C 84 % 1012,8 hPa 0,0 l/m 0 min 0 min 0,8 UV-I 237 W/m 17,7 km/h (3 Bft)
08.08.2014 10:06 21,1 C 20,6 C 85 % 1012,8 hPa 0,0 l/m 0 min 0 min 0,8 UV-I 232 W/m 17,7 km/h (3 Bft)
08.08.2014 10:08 21,2 C 20,6 C 85 % 1012,7 hPa 0,0 l/m 0 min 0 min 0,8 UV-I 225 W/m 28,2 km/h (4 Bft)
08.08.2014 10:10 21,2 C 20,6 C 85 % 1012,6 hPa 0,0 l/m 0 min 0 min 0,7 UV-I 216 W/m 17,7 km/h (3 Bft)
08.08.2014 10:12 21,3 C 20,6 C 84 % 1012,7 hPa 0,0 l/m 0 min 0 min 0,7 UV-I 204 W/m 28,2 km/h (4 Bft)
08.08.2014 10:14 21,3 C 20,6 C 83 % 1012,6 hPa 0,0 l/m 0 min 0 min 0,7 UV-I 201 W/m 21,3 km/h (4 Bft)
08.08.2014 10:16 21,4 C 20,6 C 83 % 1012,6 hPa 0,0 l/m 0 min 0 min 0,7 UV-I 206 W/m 17,7 km/h (3 Bft)
08.08.2014 10:18 21,3 C 20,6 C 83 % 1012,6 hPa 0,0 l/m 0 min 0 min 0,7 UV-I 208 W/m 24,7 km/h (4 Bft)
08.08.2014 10:20 21,3 C 20,6 C 83 % 1012,6 hPa 0,0 l/m 0 min 0 min 0,8 UV-I 210 W/m 24,7 km/h (4 Bft)
08.08.2014 10:22 21,3 C 20,6 C 83 % 1012,6 hPa 0,0 l/m 0 min 0 min 0,9 UV-I 215 W/m 21,3 km/h (4 Bft)
08.08.2014 10:24 21,3 C 20,6 C 82 % 1012,5 hPa 0,0 l/m 0 min 0 min 0,9 UV-I 221 W/m 28,2 km/h (4 Bft)
08.08.2014 10:26 21,3 C 20,6 C 82 % 1012,6 hPa 0,0 l/m 0 min 0 min 1,0 UV-I 224 W/m 21,3 km/h (4 Bft)
08.08.2014 10:28 21,4 C 21,1 C 83 % 1012,5 hPa 0,0 l/m 0 min 0 min 1,1 UV-I 239 W/m 17,7 km/h (3 Bft)
08.08.2014 10:30 21,4 C 21,1 C 82 % 1012,6 hPa 0,0 l/m 0 min 0 min 1,2 UV-I 279 W/m 21,3 km/h (4 Bft)
08.08.2014 10:32 21,5 C 21,1 C 81 % 1012,5 hPa 0,0 l/m 0 min 0 min 1,4 UV-I 299 W/m 24,7 km/h (4 Bft)
08.08.2014 10:34 21,5 C 21,1 C 81 % 1012,5 hPa 0,0 l/m 0 min 0 min 1,3 UV-I 303 W/m 28,2 km/h (4 Bft)
08.08.2014 10:36 21,6 C 21,1 C 80 % 1012,5 hPa 0,0 l/m 0 min 0 min 1,3 UV-I 295 W/m 31,7 km/h (5 Bft)
08.08.2014 10:38 21,6 C 21,1 C 80 % 1012,5 hPa 0,0 l/m 0 min 0 min 1,2 UV-I 269 W/m 28,2 km/h (4 Bft)
08.08.2014 10:40 21,6 C 21,1 C 80 % 1012,5 hPa 0,0 l/m 0 min 0 min 1,1 UV-I 251 W/m 24,7 km/h (4 Bft)
08.08.2014 10:42 21,6 C 21,1 C 80 % 1012,5 hPa 0,0 l/m 0 min 0 min 1,1 UV-I 243 W/m 14,2 km/h (3 Bft)
08.08.2014 10:44 21,6 C 21,1 C 80 % 1012,5 hPa 0,0 l/m 0 min 0 min 1,0 UV-I 243 W/m 28,2 km/h (4 Bft)
08.08.2014 10:46 21,6 C 21,1 C 80 % 1012,5 hPa 0,0 l/m 0 min 0 min 1,0 UV-I 233 W/m 17,7 km/h (3 Bft)
08.08.2014 10:48 21,6 C 20,6 C 80 % 1012,5 hPa 0,0 l/m 0 min 2 min 0,9 UV-I 212 W/m 24,7 km/h (4 Bft)
08.08.2014 10:50 21,6 C 20,6 C 81 % 1012,5 hPa 0,0 l/m 0 min 2 min 0,7 UV-I 194 W/m 3,5 km/h (1 Bft)
08.08.2014 10:52 21,6 C 20,6 C 81 % 1012,5 hPa 0,0 l/m 0 min 2 min 0,7 UV-I 181 W/m 17,7 km/h (3 Bft)
08.08.2014 10:54 21,5 C 20,6 C 81 % 1012,4 hPa 0,0 l/m 0 min 0 min 0,6 UV-I 173 W/m 21,3 km/h (4 Bft)
08.08.2014 10:56 21,5 C 20,6 C 81 % 1012,5 hPa 0,0 l/m 0 min 0 min 0,6 UV-I 167 W/m 10,7 km/h (2 Bft)
08.08.2014 10:58 21,5 C 20,6 C 82 % 1012,4 hPa 0,0 l/m 0 min 0 min 0,6 UV-I 163 W/m 28,2 km/h (4 Bft)
08.08.2014 11:00 21,4 C 20,6 C 82 % 1012,4 hPa 0,0 l/m 0 min 0 min 0,6 UV-I 160 W/m 14,2 km/h (3 Bft)
08.08.2014 11:02 21,4 C 20,6 C 82 % 1012,4 hPa 0,0 l/m 0 min 0 min 0,6 UV-I 162 W/m 31,7 km/h (5 Bft)
08.08.2014 11:04 21,4 C 20,6 C 82 % 1012,4 hPa 0,0 l/m 0 min 0 min 0,6 UV-I 165 W/m 10,7 km/h (2 Bft)
08.08.2014 11:06 21,4 C 20,6 C 82 % 1012,4 hPa 0,0 l/m 0 min 0 min 0,6 UV-I 170 W/m 10,7 km/h (2 Bft)
08.08.2014 11:08 21,4 C 20,6 C 81 % 1012,4 hPa 0,0 l/m 0 min 0 min 0,7 UV-I 171 W/m 17,7 km/h (3 Bft)
08.08.2014 11:10 21,5 C 20,6 C 81 % 1012,4 hPa 0,0 l/m 0 min 0 min 0,7 UV-I 175 W/m 17,7 km/h (3 Bft)
08.08.2014 11:12 21,5 C 21,1 C 82 % 1012,4 hPa 0,0 l/m 0 min 0 min 0,7 UV-I 186 W/m 24,7 km/h (4 Bft)
08.08.2014 11:14 21,6 C 21,1 C 81 % 1012,4 hPa 0,0 l/m 0 min 0 min 0,8 UV-I 198 W/m 21,3 km/h (4 Bft)
08.08.2014 11:16 21,6 C 21,1 C 81 % 1012,4 hPa 0,0 l/m 0 min 0 min 0,9 UV-I 207 W/m 31,7 km/h (5 Bft)
08.08.2014 11:18 21,6 C 21,1 C 81 % 1012,3 hPa 0,0 l/m 0 min 0 min 1,0 UV-I 215 W/m 17,7 km/h (3 Bft)
08.08.2014 11:20 21,6 C 21,1 C 81 % 1012,3 hPa 0,0 l/m 0 min 0 min 1,1 UV-I 226 W/m 21,3 km/h (4 Bft)
08.08.2014 11:22 21,7 C 21,1 C 81 % 1012,3 hPa 0,0 l/m 0 min 0 min 1,2 UV-I 237 W/m 0,0 km/h (0 Bft)
08.08.2014 11:24 21,8 C 21,1 C 81 % 1012,4 hPa 0,0 l/m 0 min 0 min 1,2 UV-I 243 W/m 17,7 km/h (3 Bft)
08.08.2014 11:26 21,9 C 21,7 C 81 % 1012,3 hPa 0,0 l/m 0 min 0 min 1,2 UV-I 244 W/m 24,7 km/h (4 Bft)
08.08.2014 11:28 21,9 C 21,7 C 80 % 1012,3 hPa 0,0 l/m 0 min 0 min 1,2 UV-I 249 W/m 24,7 km/h (4 Bft)
08.08.2014 11:30 21,9 C 21,7 C 80 % 1012,3 hPa 0,0 l/m 0 min 0 min 1,3 UV-I 266 W/m 21,3 km/h (4 Bft)
08.08.2014 11:32 22,1 C 21,7 C 80 % 1012,3 hPa 0,0 l/m 0 min 0 min 1,5 UV-I 277 W/m 24,7 km/h (4 Bft)
08.08.2014 11:34 22,1 C 21,7 C 78 % 1012,2 hPa 0,0 l/m 0 min 0 min 1,4 UV-I 269 W/m 35,4 km/h (5 Bft)
08.08.2014 11:36 22,2 C 21,7 C 79 % 1012,3 hPa 0,0 l/m 0 min 0 min 1,4 UV-I 269 W/m 21,3 km/h (4 Bft)
08.08.2014 11:38 22,2 C 21,7 C 79 % 1012,3 hPa 0,0 l/m 0 min 0 min 1,7 UV-I 308 W/m 14,2 km/h (3 Bft)
08.08.2014 11:40 22,3 C 22,2 C 79 % 1012,2 hPa 0,0 l/m 2 min 0 min 2,3 UV-I 414 W/m 21,3 km/h (4 Bft)
08.08.2014 11:42 22,5 C 22,8 C 79 % 1012,2 hPa 0,0 l/m 2 min 0 min 3,1 UV-I 510 W/m 21,3 km/h (4 Bft)
08.08.2014 11:44 22,9 C 23,3 C 79 % 1012,2 hPa 0,0 l/m 2 min 0 min 3,1 UV-I 636 W/m 17,7 km/h (3 Bft)
08.08.2014 11:46 23,1 C 23,3 C 77 % 1012,2 hPa 0,0 l/m 2 min 0 min 2,8 UV-I 495 W/m 24,7 km/h (4 Bft)
08.08.2014 11:48 23,3 C 23,9 C 76 % 1012,1 hPa 0,0 l/m 2 min 0 min 2,6 UV-I 442 W/m 21,3 km/h (4 Bft)
08.08.2014 11:50 23,3 C 23,3 C 76 % 1012,1 hPa 0,0 l/m 2 min 0 min 2,7 UV-I 443 W/m 24,7 km/h (4 Bft)
08.08.2014 11:52 23,4 C 23,9 C 76 % 1012,1 hPa 0,0 l/m 2 min 0 min 2,9 UV-I 502 W/m 21,3 km/h (4 Bft)
08.08.2014 11:54 23,5 C 23,9 C 76 % 1012,0 hPa 0,0 l/m 2 min 0 min 2,6 UV-I 447 W/m 21,3 km/h (4 Bft)
08.08.2014 11:56 23,7 C 24,4 C 76 % 1012,0 hPa 0,0 l/m 2 min 0 min 3,1 UV-I 428 W/m 35,4 km/h (5 Bft)
08.08.2014 11:58 23,8 C 24,4 C 75 % 1011,9 hPa 0,0 l/m 2 min 0 min 3,8 UV-I 440 W/m 31,7 km/h (5 Bft)
08.08.2014 12:00 23,9 C 24,4 C 74 % 1011,8 hPa 0,0 l/m 2 min 0 min 2,7 UV-I 448 W/m 24,7 km/h (4 Bft)
08.08.2014 12:02 23,9 C 24,4 C 74 % 1011,8 hPa 0,0 l/m 2 min 0 min 3,1 UV-I 440 W/m 21,3 km/h (4 Bft)
08.08.2014 12:05 24,0 C 24,4 C 74 % 1011,6 hPa 0,0 l/m 2 min 0 min 3,2 UV-I 402 W/m 21,3 km/h (4 Bft)
08.08.2014 12:06 24,1 C 24,4 C 75 % 1011,6 hPa 0,0 l/m 1 min 0 min 3,9 UV-I 411 W/m 21,3 km/h (4 Bft)
08.08.2014 12:08 24,2 C 25,0 C 73 % 1011,6 hPa 0,0 l/m 2 min 0 min 3,9 UV-I 537 W/m 31,7 km/h (5 Bft)
08.08.2014 12:10 24,3 C 25,0 C 72 % 1011,6 hPa 0,0 l/m 2 min 0 min 3,8 UV-I 548 W/m 35,4 km/h (5 Bft)
08.08.2014 12:12 24,4 C 25,6 C 73 % 1011,6 hPa 0,0 l/m 2 min 0 min 4,6 UV-I 696 W/m 35,4 km/h (5 Bft)
08.08.2014 12:14 24,6 C 25,6 C 72 % 1011,6 hPa 0,0 l/m 2 min 0 min 4,0 UV-I 803 W/m 38,9 km/h (6 Bft)
08.08.2014 12:16 24,7 C 25,0 C 72 % 1011,6 hPa 0,0 l/m 2 min 0 min 3,4 UV-I 639 W/m 24,7 km/h (4 Bft)
08.08.2014 12:18 24,7 C 25,6 C 71 % 1011,6 hPa 0,0 l/m 2 min 0 min 3,4 UV-I 483 W/m 24,7 km/h (4 Bft)
08.08.2014 12:20 24,7 C 25,6 C 72 % 1011,6 hPa 0,0 l/m 2 min 0 min 3,5 UV-I 595 W/m 24,7 km/h (4 Bft)
08.08.2014 12:22 24,8 C 25,6 C 72 % 1011,6 hPa 0,0 l/m 2 min 0 min 3,8 UV-I 529 W/m 31,7 km/h (5 Bft)
08.08.2014 12:24 25,1 C 25,6 C 72 % 1011,6 hPa 0,0 l/m 2 min 0 min 4,2 UV-I 584 W/m 21,3 km/h (4 Bft)
08.08.2014 12:26 25,2 C 26,1 C 70 % 1011,6 hPa 0,0 l/m 2 min 0 min 3,9 UV-I 677 W/m 31,7 km/h (5 Bft)
08.08.2014 12:28 25,2 C 25,6 C 69 % 1011,6 hPa 0,0 l/m 2 min 0 min 3,6 UV-I 562 W/m 21,3 km/h (4 Bft)
08.08.2014 12:30 25,4 C 26,1 C 71 % 1011,6 hPa 0,0 l/m 2 min 0 min 3,8 UV-I 653 W/m 24,7 km/h (4 Bft)
08.08.2014 12:32 25,4 C 25,6 C 68 % 1011,6 hPa 0,0 l/m 2 min 0 min 3,4 UV-I 546 W/m 28,2 km/h (4 Bft)
08.08.2014 12:34 25,3 C 26,1 C 68 % 1011,4 hPa 0,0 l/m 2 min 0 min 3,7 UV-I 563 W/m 24,7 km/h (4 Bft)
08.08.2014 12:36 25,5 C 27,2 C 70 % 1011,4 hPa 0,0 l/m 2 min 0 min 4,8 UV-I 727 W/m 28,2 km/h (4 Bft)
08.08.2014 12:38 26,1 C 27,8 C 73 % 1011,3 hPa 0,0 l/m 2 min 0 min 4,9 UV-I 885 W/m 24,7 km/h (4 Bft)
08.08.2014 12:40 26,3 C 27,8 C 69 % 1011,3 hPa 0,0 l/m 2 min 0 min 3,7 UV-I 675 W/m 21,3 km/h (4 Bft)
08.08.2014 12:42 26,3 C 27,2 C 69 % 1011,2 hPa 0,0 l/m 2 min 0 min 3,5 UV-I 517 W/m 38,9 km/h (6 Bft)
08.08.2014 12:44 26,3 C 27,2 C 68 % 1011,3 hPa 0,0 l/m 2 min 0 min 3,9 UV-I 652 W/m 31,7 km/h (5 Bft)
08.08.2014 12:46 26,3 C 27,2 C 67 % 1011,2 hPa 0,0 l/m 2 min 0 min 3,7 UV-I 653 W/m 24,7 km/h (4 Bft)
08.08.2014 12:48 26,3 C 26,7 C 66 % 1011,3 hPa 0,0 l/m 2 min 0 min 3,6 UV-I 616 W/m 42,4 km/h (6 Bft)
08.08.2014 12:50 26,2 C 26,7 C 67 % 1011,2 hPa 0,0 l/m 2 min 0 min 3,5 UV-I 683 W/m 35,4 km/h (5 Bft)
08.08.2014 12:52 26,1 C 26,7 C 67 % 1011,2 hPa 0,0 l/m 2 min 0 min 3,5 UV-I 655 W/m 21,3 km/h (4 Bft)
08.08.2014 12:54 26,3 C 26,7 C 66 % 1011,2 hPa 0,0 l/m 2 min 0 min 3,5 UV-I 601 W/m 35,4 km/h (5 Bft)
08.08.2014 12:56 26,4 C 26,7 C 67 % 1011,1 hPa 0,0 l/m 2 min 0 min 3,7 UV-I 570 W/m 28,2 km/h (4 Bft)
08.08.2014 12:58 26,5 C 26,7 C 66 % 1011,2 hPa 0,0 l/m 2 min 0 min 3,8 UV-I 628 W/m 31,7 km/h (5 Bft)
08.08.2014 13:00 26,5 C 26,7 C 67 % 1011,2 hPa 0,0 l/m 2 min 0 min 3,4 UV-I 520 W/m 35,4 km/h (5 Bft)
08.08.2014 13:02 26,3 C 26,1 C 64 % 1011,2 hPa 0,0 l/m 2 min 0 min 2,8 UV-I 420 W/m 38,9 km/h (6 Bft)
08.08.2014 13:04 26,1 C 25,6 C 66 % 1011,1 hPa 0,0 l/m 2 min 0 min 2,7 UV-I 397 W/m 24,7 km/h (4 Bft)
08.08.2014 13:06 25,9 C 25,6 C 65 % 1011,1 hPa 0,0 l/m 0 min 0 min 2,6 UV-I 370 W/m 42,4 km/h (6 Bft)
08.08.2014 13:08 25,8 C 25,6 C 66 % 1011,1 hPa 0,0 l/m 0 min 0 min 2,6 UV-I 371 W/m 42,4 km/h (6 Bft)
08.08.2014 13:10 25,7 C 25,6 C 65 % 1011,1 hPa 0,0 l/m 2 min 0 min 2,9 UV-I 462 W/m 35,4 km/h (5 Bft)
08.08.2014 13:12 25,8 C 25,6 C 67 % 1011,1 hPa 0,0 l/m 2 min 0 min 3,1 UV-I 480 W/m 35,4 km/h (5 Bft)
08.08.2014 13:14 25,8 C 25,6 C 68 % 1011,0 hPa 0,0 l/m 2 min 0 min 2,9 UV-I 449 W/m 21,3 km/h (4 Bft)
08.08.2014 13:16 25,9 C 25,6 C 66 % 1010,9 hPa 0,0 l/m 2 min 0 min 2,9 UV-I 442 W/m 28,2 km/h (4 Bft)
08.08.2014 13:18 26,0 C 26,1 C 67 % 1010,9 hPa 0,0 l/m 2 min 0 min 2,8 UV-I 440 W/m 28,2 km/h (4 Bft)
08.08.2014 13:20 26,0 C 26,1 C 67 % 1010,9 hPa 0,0 l/m 2 min 0 min 2,8 UV-I 420 W/m 28,2 km/h (4 Bft)
08.08.2014 13:22 26,1 C 26,1 C 67 % 1010,9 hPa 0,0 l/m 0 min 0 min 2,5 UV-I 376 W/m 31,7 km/h (5 Bft)
08.08.2014 13:24 26,1 C 25,6 C 64 % 1010,9 hPa 0,0 l/m 0 min 0 min 2,4 UV-I 351 W/m 46,0 km/h (6 Bft)
08.08.2014 13:26 25,8 C 25,6 C 65 % 1010,9 hPa 0,0 l/m 0 min 0 min 2,2 UV-I 309 W/m 38,9 km/h (6 Bft)
08.08.2014 13:28 25,7 C 25,0 C 65 % 1010,9 hPa 0,0 l/m 0 min 0 min 2,0 UV-I 288 W/m 35,4 km/h (5 Bft)
08.08.2014 13:30 25,6 C 25,0 C 67 % 1010,9 hPa 0,0 l/m 0 min 0 min 2,0 UV-I 289 W/m 17,7 km/h (3 Bft)
08.08.2014 13:32 25,6 C 25,0 C 68 % 1010,9 hPa 0,0 l/m 0 min 0 min 1,9 UV-I 282 W/m 17,7 km/h (3 Bft)
08.08.2014 13:34 25,5 C 25,0 C 68 % 1010,9 hPa 0,0 l/m 0 min 0 min 1,8 UV-I 263 W/m 28,2 km/h (4 Bft)
08.08.2014 13:36 25,4 C 25,0 C 67 % 1010,8 hPa 0,0 l/m 0 min 0 min 1,6 UV-I 241 W/m 28,2 km/h (4 Bft)
08.08.2014 13:38 25,3 C 24,4 C 66 % 1010,7 hPa 0,0 l/m 0 min 0 min 1,5 UV-I 224 W/m 42,4 km/h (6 Bft)
08.08.2014 13:40 25,2 C 24,4 C 66 % 1010,8 hPa 0,0 l/m 0 min 0 min 1,3 UV-I 215 W/m 31,7 km/h (5 Bft)
08.08.2014 13:42 25,1 C 24,4 C 67 % 1010,7 hPa 0,0 l/m 0 min 0 min 1,3 UV-I 214 W/m 28,2 km/h (4 Bft)
08.08.2014 13:44 25,1 C 24,4 C 67 % 1010,7 hPa 0,0 l/m 0 min 0 min 1,3 UV-I 215 W/m 28,2 km/h (4 Bft)
08.08.2014 13:46 25,1 C 24,4 C 67 % 1010,7 hPa 0,0 l/m 0 min 0 min 1,3 UV-I 211 W/m 28,2 km/h (4 Bft)
08.08.2014 13:48 24,9 C 23,9 C 68 % 1010,6 hPa 0,0 l/m 0 min 0 min 1,3 UV-I 205 W/m 24,7 km/h (4 Bft)
08.08.2014 13:50 24,9 C 23,9 C 68 % 1010,6 hPa 0,0 l/m 0 min 0 min 1,2 UV-I 198 W/m 14,2 km/h (3 Bft)
08.08.2014 13:52 24,9 C 23,9 C 68 % 1010,6 hPa 0,0 l/m 0 min 0 min 1,1 UV-I 192 W/m 28,2 km/h (4 Bft)
08.08.2014 13:54 24,9 C 23,9 C 69 % 1010,5 hPa 0,0 l/m 0 min 0 min 1,1 UV-I 188 W/m 21,3 km/h (4 Bft)
08.08.2014 13:56 24,9 C 23,9 C 69 % 1010,5 hPa 0,0 l/m 0 min 0 min 1,1 UV-I 185 W/m 21,3 km/h (4 Bft)
08.08.2014 13:58 24,8 C 23,9 C 68 % 1010,4 hPa 0,0 l/m 0 min 0 min 1,0 UV-I 179 W/m 31,7 km/h (5 Bft)
08.08.2014 14:00 24,8 C 23,9 C 70 % 1010,5 hPa 0,0 l/m 0 min 0 min 1,0 UV-I 178 W/m 14,2 km/h (3 Bft)
08.08.2014 14:02 24,8 C 23,9 C 68 % 1010,4 hPa 0,0 l/m 0 min 2 min 1,0 UV-I 177 W/m 24,7 km/h (4 Bft)
08.08.2014 14:04 24,8 C 23,9 C 69 % 1010,4 hPa 0,0 l/m 0 min 0 min 0,9 UV-I 171 W/m 24,7 km/h (4 Bft)
08.08.2014 14:06 24,8 C 23,9 C 69 % 1010,4 hPa 0,0 l/m 0 min 0 min 0,9 UV-I 161 W/m 21,3 km/h (4 Bft)
08.08.2014 14:08 24,7 C 23,3 C 70 % 1010,4 hPa 0,0 l/m 0 min 0 min 0,8 UV-I 149 W/m 17,7 km/h (3 Bft)
08.08.2014 14:10 24,7 C 23,3 C 69 % 1010,4 hPa 0,0 l/m 0 min 0 min 0,6 UV-I 139 W/m 28,2 km/h (4 Bft)
08.08.2014 14:12 24,7 C 23,3 C 69 % 1010,4 hPa 0,0 l/m 0 min 0 min 0,6 UV-I 133 W/m 21,3 km/h (4 Bft)
08.08.2014 14:14 24,7 C 23,3 C 71 % 1010,4 hPa 0,0 l/m 0 min 0 min 0,5 UV-I 128 W/m 17,7 km/h (3 Bft)
08.08.2014 14:16 24,6 C 23,3 C 69 % 1010,4 hPa 0,0 l/m 0 min 0 min 0,4 UV-I 122 W/m 35,4 km/h (5 Bft)
08.08.2014 14:18 24,6 C 23,3 C 69 % 1010,3 hPa 0,0 l/m 0 min 0 min 0,0 UV-I 115 W/m 31,7 km/h (5 Bft)
08.08.2014 14:20 24,5 C 22,8 C 70 % 1010,3 hPa 0,0 l/m 0 min 0 min 0,0 UV-I 109 W/m 21,3 km/h (4 Bft)
08.08.2014 14:22 24,4 C 22,8 C 69 % 1010,3 hPa 0,0 l/m 0 min 0 min 0,0 UV-I 106 W/m 24,7 km/h (4 Bft)
08.08.2014 14:24 24,4 C 22,8 C 69 % 1010,2 hPa 0,0 l/m 0 min 0 min 0,0 UV-I 105 W/m 24,7 km/h (4 Bft)
08.08.2014 14:26 24,4 C 22,8 C 69 % 1010,2 hPa 0,0 l/m 0 min 0 min 0,0 UV-I 105 W/m 17,7 km/h (3 Bft)
08.08.2014 14:28 24,4 C 22,8 C 69 % 1010,2 hPa 0,0 l/m 0 min 0 min 0,0 UV-I 105 W/m 24,7 km/h (4 Bft)
08.08.2014 14:30 24,4 C 22,8 C 69 % 1010,2 hPa 0,0 l/m 0 min 0 min 0,0 UV-I 105 W/m 28,2 km/h (4 Bft)
08.08.2014 14:32 24,4 C 22,8 C 69 % 1010,2 hPa 0,0 l/m 0 min 0 min 0,0 UV-I 104 W/m 21,3 km/h (4 Bft)
08.08.2014 14:34 24,3 C 22,8 C 69 % 1010,1 hPa 0,0 l/m 0 min 0 min 0,0 UV-I 100 W/m 17,7 km/h (3 Bft)
08.08.2014 14:36 24,2 C 22,8 C 70 % 1010,2 hPa 0,0 l/m 0 min 0 min 0,0 UV-I 98 W/m 21,3 km/h (4 Bft)
08.08.2014 14:38 24,2 C 22,8 C 70 % 1010,1 hPa 0,0 l/m 0 min 0 min 0,0 UV-I 98 W/m 17,7 km/h (3 Bft)
08.08.2014 14:40 24,2 C 22,8 C 70 % 1010,1 hPa 0,0 l/m 0 min 0 min 0,0 UV-I 103 W/m 21,3 km/h (4 Bft)
08.08.2014 14:42 24,2 C 22,8 C 71 % 1010,1 hPa 0,0 l/m 0 min 0 min 0,0 UV-I 111 W/m 17,7 km/h (3 Bft)
08.08.2014 14:44 24,2 C 22,8 C 71 % 1010,0 hPa 0,0 l/m 0 min 0 min 0,0 UV-I 119 W/m 17,7 km/h (3 Bft)
08.08.2014 14:46 24,2 C 22,8 C 70 % 1009,9 hPa 0,0 l/m 0 min 0 min 0,1 UV-I 127 W/m 0,0 km/h (0 Bft)
08.08.2014 14:48 24,2 C 22,8 C 71 % 1009,9 hPa 0,0 l/m 0 min 0 min 0,5 UV-I 136 W/m 21,3 km/h (4 Bft)
08.08.2014 14:50 24,3 C 22,8 C 69 % 1009,8 hPa 0,0 l/m 0 min 0 min 0,6 UV-I 145 W/m 21,3 km/h (4 Bft)
08.08.2014 14:52 24,3 C 22,8 C 69 % 1009,8 hPa 0,0 l/m 0 min 0 min 0,7 UV-I 153 W/m 17,7 km/h (3 Bft)
08.08.2014 14:54 24,4 C 22,8 C 69 % 1009,7 hPa 0,0 l/m 0 min 0 min 0,8 UV-I 161 W/m 21,3 km/h (4 Bft)
08.08.2014 14:56 24,4 C 22,8 C 69 % 1009,7 hPa 0,0 l/m 0 min 0 min 0,8 UV-I 163 W/m 24,7 km/h (4 Bft)
08.08.2014 14:58 24,4 C 22,8 C 70 % 1009,7 hPa 0,0 l/m 0 min 0 min 0,8 UV-I 160 W/m 21,3 km/h (4 Bft)
08.08.2014 15:00 24,4 C 22,8 C 69 % 1009,6 hPa 0,0 l/m 0 min 0 min 0,7 UV-I 154 W/m 28,2 km/h (4 Bft)
08.08.2014 15:02 24,5 C 22,8 C 69 % 1009,6 hPa 0,0 l/m 0 min 0 min 0,7 UV-I 149 W/m 17,7 km/h (3 Bft)
08.08.2014 15:04 24,5 C 22,8 C 69 % 1009,5 hPa 0,0 l/m 0 min 0 min 0,6 UV-I 142 W/m 24,7 km/h (4 Bft)
08.08.2014 15:06 24,6 C 22,8 C 69 % 1009,5 hPa 0,0 l/m 0 min 0 min 0,6 UV-I 133 W/m 21,3 km/h (4 Bft)
08.08.2014 15:08 24,6 C 22,8 C 68 % 1009,5 hPa 0,0 l/m 0 min 0 min 0,5 UV-I 127 W/m 35,4 km/h (5 Bft)
08.08.2014 15:10 24,6 C 22,8 C 68 % 1009,5 hPa 0,0 l/m 0 min 0 min 0,5 UV-I 125 W/m 24,7 km/h (4 Bft)
08.08.2014 15:12 24,6 C 22,8 C 69 % 1009,5 hPa 0,0 l/m 0 min 0 min 0,5 UV-I 127 W/m 7,1 km/h (2 Bft)
08.08.2014 15:14 24,5 C 22,8 C 68 % 1009,5 hPa 0,0 l/m 0 min 0 min 0,4 UV-I 125 W/m 24,7 km/h (4 Bft)
08.08.2014 15:16 24,5 C 22,8 C 69 % 1009,4 hPa 0,0 l/m 0 min 0 min 0,0 UV-I 119 W/m 17,7 km/h (3 Bft)
08.08.2014 15:18 24,4 C 22,8 C 68 % 1009,5 hPa 0,0 l/m 0 min 0 min 0,0 UV-I 113 W/m 24,7 km/h (4 Bft)
08.08.2014 15:20 24,4 C 22,8 C 68 % 1009,4 hPa 0,0 l/m 0 min 2 min 0,0 UV-I 110 W/m 17,7 km/h (3 Bft)
08.08.2014 15:22 24,4 C 22,8 C 68 % 1009,3 hPa 0,0 l/m 0 min 0 min 0,0 UV-I 105 W/m 24,7 km/h (4 Bft)
08.08.2014 15:24 24,4 C 22,8 C 68 % 1009,3 hPa 0,0 l/m 0 min 0 min 0,0 UV-I 99 W/m 24,7 km/h (4 Bft)
08.08.2014 15:26 24,4 C 22,8 C 68 % 1009,3 hPa 0,0 l/m 0 min 0 min 0,0 UV-I 91 W/m 24,7 km/h (4 Bft)
08.08.2014 15:28 24,3 C 22,8 C 69 % 1009,2 hPa 0,0 l/m 0 min 0 min 0,0 UV-I 80 W/m 21,3 km/h (4 Bft)
08.08.2014 15:30 24,3 C 22,8 C 69 % 1009,3 hPa 0,0 l/m 0 min 0 min 0,0 UV-I 70 W/m 17,7 km/h (3 Bft)
08.08.2014 15:32 24,3 C 22,2 C 69 % 1009,2 hPa 0,0 l/m 0 min 0 min 0,0 UV-I 58 W/m 24,7 km/h (4 Bft)
08.08.2014 15:34 24,3 C 22,2 C 68 % 1009,2 hPa 0,0 l/m 0 min 0 min 0,0 UV-I 52 W/m 17,7 km/h (3 Bft)
08.08.2014 15:36 24,3 C 22,2 C 69 % 1009,2 hPa 0,0 l/m 0 min 2 min 0,0 UV-I 50 W/m 31,7 km/h (5 Bft)
08.08.2014 15:38 24,2 C 21,7 C 70 % 1009,2 hPa 0,0 l/m 0 min 2 min 0,0 UV-I 49 W/m 14,2 km/h (3 Bft)
08.08.2014 15:40 24,2 C 21,1 C 71 % 1009,2 hPa 0,0 l/m 0 min 2 min 0,0 UV-I 46 W/m 31,7 km/h (5 Bft)
08.08.2014 15:42 24,1 C 20,0 C 72 % 1009,1 hPa 0,0 l/m 0 min 2 min 0,0 UV-I 38 W/m 21,3 km/h (4 Bft)
08.08.2014 15:44 24,0 C 20,0 C 74 % 1009,1 hPa 0,0 l/m 0 min 2 min 0,0 UV-I 33 W/m 14,2 km/h (3 Bft)
08.08.2014 15:46 23,8 C 19,4 C 75 % 1009,1 hPa 0,0 l/m 0 min 2 min 0,0 UV-I 36 W/m 10,7 km/h (2 Bft)
08.08.2014 15:48 23,7 C 19,4 C 75 % 1009,2 hPa 0,0 l/m 0 min 2 min 0,0 UV-I 40 W/m 17,7 km/h (3 Bft)
08.08.2014 15:50 23,4 C 19,4 C 77 % 1009,2 hPa 0,0 l/m 0 min 2 min 0,0 UV-I 41 W/m 7,1 km/h (2 Bft)
08.08.2014 15:52 23,3 C 18,9 C 79 % 1009,3 hPa 0,2 l/m 0 min 2 min 0,0 UV-I 40 W/m 10,7 km/h (2 Bft)
08.08.2014 15:54 23,0 C 18,9 C 80 % 1009,5 hPa 0,2 l/m 0 min 2 min 0,0 UV-I 37 W/m 17,7 km/h (3 Bft)
08.08.2014 15:56 22,6 C 18,9 C 83 % 1009,7 hPa 0,4 l/m 0 min 2 min 0,0 UV-I 28 W/m 28,2 km/h (4 Bft)
08.08.2014 15:58 22,2 C 18,3 C 84 % 1009,8 hPa 0,4 l/m 0 min 2 min 0,0 UV-I 27 W/m 38,9 km/h (6 Bft)
08.08.2014 16:00 21,9 C 18,3 C 85 % 1009,8 hPa 0,6 l/m 0 min 2 min 0,0 UV-I 28 W/m 49,5 km/h (6 Bft)
08.08.2014 16:02 21,4 C 18,3 C 87 % 1009,9 hPa 1,4 l/m 0 min 2 min 0,0 UV-I 25 W/m 60,2 km/h (7 Bft)
08.08.2014 16:04 21,0 C 18,3 C 88 % 1009,9 hPa 1,8 l/m 0 min 2 min 0,0 UV-I 25 W/m 53,0 km/h (7 Bft)
08.08.2014 16:06 20,7 C 18,3 C 90 % 1010,0 hPa 1,0 l/m 0 min 2 min 0,0 UV-I 23 W/m 21,3 km/h (4 Bft)
08.08.2014 16:08 20,4 C 17,8 C 91 % 1010,2 hPa 1,2 l/m 0 min 2 min 0,0 UV-I 18 W/m 28,2 km/h (4 Bft)
08.08.2014 16:10 20,2 C 17,8 C 92 % 1010,2 hPa 1,4 l/m 0 min 2 min 0,0 UV-I 17 W/m 24,7 km/h (4 Bft)
08.08.2014 16:12 20,0 C 17,8 C 92 % 1010,3 hPa 1,8 l/m 0 min 2 min 0,0 UV-I 21 W/m 17,7 km/h (3 Bft)
08.08.2014 16:14 19,7 C 17,8 C 93 % 1010,1 hPa 0,8 l/m 0 min 2 min 0,0 UV-I 34 W/m 10,7 km/h (2 Bft)
08.08.2014 16:16 19,6 C 17,8 C 93 % 1010,1 hPa 0,6 l/m 0 min 2 min 0,0 UV-I 40 W/m 0,0 km/h (0 Bft)
08.08.2014 16:18 19,5 C 17,8 C 94 % 1010,1 hPa 0,2 l/m 0 min 2 min 0,0 UV-I 37 W/m 0,0 km/h (0 Bft)
08.08.2014 16:20 19,5 C 17,8 C 94 % 1010,0 hPa 0,0 l/m 0 min 2 min 0,0 UV-I 38 W/m 0,0 km/h (0 Bft)
08.08.2014 16:22 19,4 C 17,8 C 95 % 1009,9 hPa 0,2 l/m 0 min 2 min 0,0 UV-I 56 W/m 0,0 km/h (0 Bft)
08.08.2014 16:24 19,5 C 17,8 C 95 % 1009,8 hPa 0,0 l/m 0 min 2 min 0,0 UV-I 82 W/m 14,2 km/h (3 Bft)
08.08.2014 16:26 19,6 C 18,3 C 96 % 1009,8 hPa 0,0 l/m 0 min 2 min 0,0 UV-I 86 W/m 21,3 km/h (4 Bft)
08.08.2014 16:28 19,6 C 18,3 C 96 % 1009,8 hPa 0,0 l/m 0 min 2 min 0,0 UV-I 81 W/m 10,7 km/h (2 Bft)
08.08.2014 16:30 19,6 C 18,3 C 96 % 1009,8 hPa 0,0 l/m 0 min 0 min 0,0 UV-I 66 W/m 10,7 km/h (2 Bft)
08.08.2014 16:32 19,3 C 17,8 C 96 % 1009,8 hPa 0,0 l/m 0 min 0 min 0,0 UV-I 53 W/m 17,7 km/h (3 Bft)
08.08.2014 16:34 19,2 C 17,8 C 96 % 1009,9 hPa 0,0 l/m 0 min 2 min 0,0 UV-I 53 W/m 3,5 km/h (1 Bft)
08.08.2014 16:36 19,1 C 17,8 C 96 % 1009,8 hPa 0,0 l/m 0 min 2 min 0,0 UV-I 62 W/m 10,7 km/h (2 Bft)
08.08.2014 16:38 19,1 C 17,8 C 96 % 1009,8 hPa 0,0 l/m 0 min 2 min 0,0 UV-I 79 W/m 10,7 km/h (2 Bft)
08.08.2014 16:40 19,1 C 17,8 C 96 % 1009,7 hPa 0,2 l/m 0 min 2 min 0,0 UV-I 89 W/m 0,0 km/h (0 Bft)
08.08.2014 16:42 19,1 C 17,8 C 96 % 1009,7 hPa 0,0 l/m 0 min 2 min 0,0 UV-I 78 W/m 14,2 km/h (3 Bft)
08.08.2014 16:44 19,2 C 17,8 C 97 % 1009,7 hPa 0,0 l/m 0 min 2 min 0,0 UV-I 76 W/m 14,2 km/h (3 Bft)
08.08.2014 16:46 19,3 C 18,3 C 97 % 1009,7 hPa 0,0 l/m 0 min 2 min 0,0 UV-I 72 W/m 14,2 km/h (3 Bft)
08.08.2014 16:48 19,3 C 17,8 C 97 % 1009,7 hPa 0,0 l/m 0 min 0 min 0,0 UV-I 70 W/m 14,2 km/h (3 Bft)
08.08.2014 16:50 19,4 C 18,3 C 97 % 1009,7 hPa 0,0 l/m 0 min 0 min 0,0 UV-I 72 W/m 14,2 km/h (3 Bft)
08.08.2014 16:52 19,4 C 18,3 C 97 % 1009,7 hPa 0,0 l/m 0 min 0 min 0,0 UV-I 75 W/m 7,1 km/h (2 Bft)
08.08.2014 16:54 19,4 C 18,3 C 97 % 1009,7 hPa 0,0 l/m 0 min 0 min 0,0 UV-I 88 W/m 0,0 km/h (0 Bft)
08.08.2014 16:56 19,4 C 18,3 C 97 % 1009,7 hPa 0,0 l/m 0 min 0 min 0,0 UV-I 103 W/m 0,0 km/h (0 Bft)
08.08.2014 16:58 19,5 C 18,3 C 97 % 1009,6 hPa 0,0 l/m 0 min 0 min 0,0 UV-I 109 W/m 3,5 km/h (1 Bft)
08.08.2014 17:00 19,6 C 18,3 C 97 % 1009,6 hPa 0,0 l/m 0 min 0 min 0,0 UV-I 111 W/m 0,0 km/h (0 Bft)
08.08.2014 17:02 19,7 C 18,3 C 97 % 1009,6 hPa 0,0 l/m 0 min 0 min 0,0 UV-I 108 W/m 0,0 km/h (0 Bft)
08.08.2014 17:04 19,7 C 18,3 C 97 % 1009,6 hPa 0,0 l/m 0 min 0 min 0,0 UV-I 104 W/m 0,0 km/h (0 Bft)
08.08.2014 17:06 19,6 C 18,3 C 97 % 1009,6 hPa 0,0 l/m 0 min 0 min 0,0 UV-I 103 W/m 14,2 km/h (3 Bft)
08.08.2014 17:08 19,7 C 18,9 C 97 % 1009,6 hPa 0,0 l/m 0 min 0 min 0,0 UV-I 104 W/m 10,7 km/h (2 Bft)
08.08.2014 17:10 19,7 C 18,9 C 97 % 1009,6 hPa 0,0 l/m 0 min 0 min 0,0 UV-I 107 W/m 0,0 km/h (0 Bft)
08.08.2014 17:12 19,7 C 18,9 C 97 % 1009,6 hPa 0,0 l/m 0 min 2 min 0,0 UV-I 109 W/m 0,0 km/h (0 Bft)
08.08.2014 17:14 19,7 C 18,9 C 97 % 1009,5 hPa 0,0 l/m 0 min 2 min 0,0 UV-I 109 W/m 3,5 km/h (1 Bft)
08.08.2014 17:16 19,8 C 18,9 C 97 % 1009,6 hPa 0,0 l/m 0 min 0 min 0,0 UV-I 109 W/m 0,0 km/h (0 Bft)
08.08.2014 17:18 19,9 C 18,9 C 97 % 1009,5 hPa 0,0 l/m 0 min 0 min 0,0 UV-I 108 W/m 0,0 km/h (0 Bft)
08.08.2014 17:20 19,9 C 18,9 C 97 % 1009,6 hPa 0,0 l/m 0 min 0 min 0,0 UV-I 106 W/m 0,0 km/h (0 Bft)
08.08.2014 17:22 19,8 C 18,9 C 97 % 1009,6 hPa 0,0 l/m 0 min 0 min 0,0 UV-I 105 W/m 3,5 km/h (1 Bft)
08.08.2014 17:24 19,7 C 18,9 C 98 % 1009,5 hPa 0,0 l/m 0 min 0 min 0,0 UV-I 107 W/m 0,0 km/h (0 Bft)
08.08.2014 17:26 19,7 C 18,9 C 97 % 1009,5 hPa 0,0 l/m 0 min 0 min 0,0 UV-I 112 W/m 0,0 km/h (0 Bft)
08.08.2014 17:28 19,7 C 18,9 C 97 % 1009,5 hPa 0,0 l/m 0 min 2 min 0,0 UV-I 114 W/m 3,5 km/h (1 Bft)
08.08.2014 17:30 19,7 C 18,9 C 97 % 1009,5 hPa 0,0 l/m 0 min 2 min 0,0 UV-I 116 W/m 0,0 km/h (0 Bft)
08.08.2014 17:32 19,8 C 18,9 C 97 % 1009,4 hPa 0,0 l/m 0 min 2 min 0,0 UV-I 114 W/m 3,5 km/h (1 Bft)
08.08.2014 17:34 19,8 C 18,9 C 97 % 1009,4 hPa 0,0 l/m 0 min 2 min 0,0 UV-I 118 W/m 0,0 km/h (0 Bft)
08.08.2014 17:36 19,7 C 18,3 C 97 % 1009,4 hPa 0,0 l/m 0 min 2 min 0,0 UV-I 124 W/m 0,0 km/h (0 Bft)
08.08.2014 17:38 19,7 C 18,3 C 97 % 1009,4 hPa 0,0 l/m 0 min 2 min 0,0 UV-I 127 W/m 0,0 km/h (0 Bft)
08.08.2014 17:40 19,7 C 18,9 C 97 % 1009,4 hPa 0,0 l/m 0 min 2 min 0,0 UV-I 127 W/m 0,0 km/h (0 Bft)
08.08.2014 17:42 19,9 C 18,9 C 97 % 1009,4 hPa 0,0 l/m 0 min 2 min 0,0 UV-I 123 W/m 0,0 km/h (0 Bft)
08.08.2014 17:44 19,9 C 18,9 C 97 % 1009,3 hPa 0,0 l/m 0 min 2 min 0,0 UV-I 120 W/m 0,0 km/h (0 Bft)
08.08.2014 17:46 19,9 C 18,9 C 97 % 1009,4 hPa 0,0 l/m 0 min 2 min 0,0 UV-I 118 W/m 0,0 km/h (0 Bft)
08.08.2014 17:48 19,9 C 18,9 C 97 % 1009,4 hPa 0,0 l/m 0 min 2 min 0,0 UV-I 106 W/m 3,5 km/h (1 Bft)
08.08.2014 17:50 20,1 C 18,9 C 98 % 1009,4 hPa 0,0 l/m 0 min 2 min 0,0 UV-I 100 W/m 0,0 km/h (0 Bft)
08.08.2014 17:52 20,1 C 18,9 C 98 % 1009,4 hPa 0,0 l/m 0 min 2 min 0,0 UV-I 105 W/m 0,0 km/h (0 Bft)
08.08.2014 17:54 20,1 C 18,9 C 98 % 1009,4 hPa 0,0 l/m 0 min 2 min 0,0 UV-I 106 W/m 0,0 km/h (0 Bft)
08.08.2014 17:56 20,1 C 18,9 C 98 % 1009,4 hPa 0,0 l/m 0 min 2 min 0,0 UV-I 103 W/m 0,0 km/h (0 Bft)
08.08.2014 17:58 20,1 C 18,9 C 98 % 1009,4 hPa 0,0 l/m 0 min 2 min 0,0 UV-I 101 W/m 3,5 km/h (1 Bft)
08.08.2014 18:00 20,2 C 18,9 C 98 % 1009,4 hPa 0,0 l/m 0 min 2 min 0,0 UV-I 89 W/m 0,0 km/h (0 Bft)
08.08.2014 18:02 20,2 C 18,9 C 98 % 1009,3 hPa 0,0 l/m 0 min 2 min 0,0 UV-I 77 W/m 0,0 km/h (0 Bft)
08.08.2014 18:05 20,2 C 18,9 C 98 % 1009,3 hPa 0,2 l/m 0 min 2 min 0,0 UV-I 75 W/m 0,0 km/h (0 Bft)
08.08.2014 18:06 20,2 C 18,9 C 98 % 1009,3 hPa 0,0 l/m 0 min 1 min 0,0 UV-I 101 W/m 0,0 km/h (0 Bft)
08.08.2014 18:08 20,2 C 18,9 C 98 % 1009,3 hPa 0,2 l/m 0 min 2 min 0,0 UV-I 82 W/m 0,0 km/h (0 Bft)
08.08.2014 18:10 20,2 C 18,9 C 98 % 1009,2 hPa 0,0 l/m 0 min 2 min 0,0 UV-I 66 W/m 0,0 km/h (0 Bft)
08.08.2014 18:12 20,2 C 18,9 C 98 % 1009,2 hPa 0,0 l/m 0 min 2 min 0,0 UV-I 56 W/m 3,5 km/h (1 Bft)
08.08.2014 18:14 20,2 C 18,9 C 98 % 1009,2 hPa 0,0 l/m 0 min 2 min 0,0 UV-I 68 W/m 3,5 km/h (1 Bft)
08.08.2014 18:16 20,1 C 18,9 C 98 % 1009,1 hPa 0,0 l/m 0 min 2 min 0,0 UV-I 78 W/m 3,5 km/h (1 Bft)
08.08.2014 18:18 20,2 C 18,9 C 98 % 1009,1 hPa 0,0 l/m 0 min 2 min 0,0 UV-I 74 W/m 3,5 km/h (1 Bft)
08.08.2014 18:20 20,1 C 18,9 C 98 % 1009,1 hPa 0,0 l/m 0 min 2 min 0,0 UV-I 58 W/m 0,0 km/h (0 Bft)
08.08.2014 18:22 20,1 C 18,9 C 98 % 1009,0 hPa 0,0 l/m 0 min 2 min 0,0 UV-I 49 W/m 0,0 km/h (0 Bft)
08.08.2014 18:24 20,0 C 18,9 C 98 % 1008,9 hPa 0,0 l/m 0 min 2 min 0,0 UV-I 42 W/m 0,0 km/h (0 Bft)
08.08.2014 18:26 20,1 C 18,9 C 98 % 1009,0 hPa 0,0 l/m 0 min 2 min 0,0 UV-I 31 W/m 3,5 km/h (1 Bft)
08.08.2014 18:28 20,1 C 18,9 C 98 % 1008,9 hPa 0,0 l/m 0 min 2 min 0,0 UV-I 26 W/m 14,2 km/h (3 Bft)
08.08.2014 18:30 20,1 C 18,9 C 98 % 1008,9 hPa 0,0 l/m 0 min 0 min 0,0 UV-I 29 W/m 0,0 km/h (0 Bft)
08.08.2014 18:32 20,1 C 18,9 C 98 % 1008,8 hPa 0,0 l/m 0 min 2 min 0,0 UV-I 35 W/m 10,7 km/h (2 Bft)
08.08.2014 18:34 20,1 C 18,9 C 98 % 1008,7 hPa 0,2 l/m 0 min 2 min 0,0 UV-I 49 W/m 10,7 km/h (2 Bft)
08.08.2014 18:36 20,1 C 18,9 C 98 % 1008,6 hPa 0,0 l/m 0 min 2 min 0,0 UV-I 57 W/m 0,0 km/h (0 Bft)
08.08.2014 18:38 20,1 C 18,9 C 98 % 1008,5 hPa 0,0 l/m 0 min 2 min 0,0 UV-I 59 W/m 0,0 km/h (0 Bft)
08.08.2014 18:40 20,1 C 18,9 C 98 % 1008,4 hPa 0,0 l/m 0 min 2 min 0,0 UV-I 67 W/m 0,0 km/h (0 Bft)
08.08.2014 18:42 20,1 C 18,9 C 98 % 1008,3 hPa 0,0 l/m 0 min 0 min 0,0 UV-I 72 W/m 0,0 km/h (0 Bft)
08.08.2014 18:44 20,1 C 18,9 C 98 % 1008,3 hPa 0,0 l/m 0 min 0 min 0,0 UV-I 70 W/m 3,5 km/h (1 Bft)
08.08.2014 18:46 20,1 C 18,9 C 98 % 1008,3 hPa 0,0 l/m 0 min 0 min 0,0 UV-I 69 W/m 0,0 km/h (0 Bft)
08.08.2014 18:48 20,2 C 18,9 C 98 % 1008,3 hPa 0,0 l/m 0 min 2 min 0,0 UV-I 69 W/m 10,7 km/h (2 Bft)
08.08.2014 18:50 20,2 C 18,9 C 98 % 1008,3 hPa 0,0 l/m 0 min 2 min 0,0 UV-I 67 W/m 3,5 km/h (1 Bft)
08.08.2014 18:52 20,2 C 18,9 C 98 % 1008,3 hPa 0,0 l/m 0 min 0 min 0,0 UV-I 62 W/m 10,7 km/h (2 Bft)
08.08.2014 18:54 20,1 C 18,9 C 98 % 1008,2 hPa 0,0 l/m 0 min 0 min 0,0 UV-I 58 W/m 17,7 km/h (3 Bft)
08.08.2014 18:56 20,1 C 18,9 C 98 % 1008,2 hPa 0,0 l/m 0 min 0 min 0,0 UV-I 61 W/m 14,2 km/h (3 Bft)
08.08.2014 18:58 20,1 C 18,9 C 98 % 1008,2 hPa 0,0 l/m 0 min 0 min 0,0 UV-I 63 W/m 10,7 km/h (2 Bft)
08.08.2014 19:00 20,0 C 18,9 C 98 % 1008,1 hPa 0,0 l/m 0 min 0 min 0,0 UV-I 62 W/m 10,7 km/h (2 Bft)
08.08.2014 19:02 19,9 C 18,3 C 98 % 1008,1 hPa 0,0 l/m 0 min 0 min 0,0 UV-I 62 W/m 14,2 km/h (3 Bft)
08.08.2014 19:04 19,9 C 18,3 C 98 % 1008,1 hPa 0,0 l/m 0 min 0 min 0,0 UV-I 63 W/m 7,1 km/h (2 Bft)
08.08.2014 19:06 19,9 C 18,3 C 98 % 1008,0 hPa 0,0 l/m 0 min 0 min 0,0 UV-I 57 W/m 3,5 km/h (1 Bft)
08.08.2014 19:08 19,8 C 18,3 C 98 % 1007,9 hPa 0,0 l/m 0 min 0 min 0,0 UV-I 52 W/m 0,0 km/h (0 Bft)
08.08.2014 19:10 19,8 C 18,3 C 97 % 1007,8 hPa 0,0 l/m 0 min 0 min 0,0 UV-I 55 W/m 17,7 km/h (3 Bft)
08.08.2014 19:12 19,8 C 18,3 C 97 % 1007,9 hPa 0,0 l/m 0 min 0 min 0,0 UV-I 60 W/m 3,5 km/h (1 Bft)
08.08.2014 19:14 19,8 C 18,3 C 97 % 1007,8 hPa 0,0 l/m 0 min 0 min 0,0 UV-I 56 W/m 17,7 km/h (3 Bft)
08.08.2014 19:16 19,8 C 18,3 C 97 % 1007,9 hPa 0,0 l/m 0 min 0 min 0,0 UV-I 51 W/m 17,7 km/h (3 Bft)
08.08.2014 19:18 19,8 C 18,3 C 97 % 1007,8 hPa 0,0 l/m 0 min 0 min 0,0 UV-I 45 W/m 14,2 km/h (3 Bft)
08.08.2014 19:20 19,8 C 18,3 C 97 % 1007,7 hPa 0,0 l/m 0 min 0 min 0,0 UV-I 42 W/m 14,2 km/h (3 Bft)
08.08.2014 19:22 19,8 C 18,3 C 97 % 1007,8 hPa 0,0 l/m 0 min 0 min 0,0 UV-I 43 W/m 10,7 km/h (2 Bft)
08.08.2014 19:24 19,8 C 18,3 C 97 % 1007,7 hPa 0,0 l/m 0 min 0 min 0,0 UV-I 39 W/m 14,2 km/h (3 Bft)
08.08.2014 19:26 19,8 C 18,3 C 97 % 1007,7 hPa 0,0 l/m 0 min 0 min 0,0 UV-I 36 W/m 10,7 km/h (2 Bft)
08.08.2014 19:28 19,9 C 18,3 C 97 % 1007,7 hPa 0,0 l/m 0 min 0 min 0,0 UV-I 33 W/m 3,5 km/h (1 Bft)
08.08.2014 19:30 19,9 C 18,3 C 97 % 1007,7 hPa 0,0 l/m 0 min 2 min 0,0 UV-I 29 W/m 7,1 km/h (2 Bft)
08.08.2014 19:32 19,8 C 18,3 C 97 % 1007,7 hPa 0,0 l/m 0 min 2 min 0,0 UV-I 27 W/m 17,7 km/h (3 Bft)
08.08.2014 19:34 19,8 C 18,3 C 97 % 1007,7 hPa 0,0 l/m 0 min 2 min 0,0 UV-I 25 W/m 10,7 km/h (2 Bft)
08.08.2014 19:36 19,8 C 18,3 C 97 % 1007,6 hPa 0,0 l/m 0 min 2 min 0,0 UV-I 24 W/m 17,7 km/h (3 Bft)
08.08.2014 19:38 19,8 C 18,3 C 97 % 1007,5 hPa 0,0 l/m 0 min 2 min 0,0 UV-I 20 W/m 17,7 km/h (3 Bft)
08.08.2014 19:40 19,7 C 18,3 C 97 % 1007,5 hPa 0,0 l/m 0 min 2 min 0,0 UV-I 19 W/m 17,7 km/h (3 Bft)
08.08.2014 19:42 19,7 C 18,3 C 97 % 1007,5 hPa 0,0 l/m 0 min 2 min 0,0 UV-I 18 W/m 21,3 km/h (4 Bft)
08.08.2014 19:44 19,7 C 18,3 C 97 % 1007,5 hPa 0,0 l/m 0 min 2 min 0,0 UV-I 17 W/m 24,7 km/h (4 Bft)
08.08.2014 19:46 19,7 C 18,3 C 97 % 1007,5 hPa 0,0 l/m 0 min 2 min 0,0 UV-I 16 W/m 21,3 km/h (4 Bft)
08.08.2014 19:48 19,7 C 17,8 C 97 % 1007,6 hPa 0,0 l/m 0 min 2 min 0,0 UV-I 14 W/m 24,7 km/h (4 Bft)
08.08.2014 19:50 19,6 C 17,8 C 97 % 1007,5 hPa 0,0 l/m 0 min 2 min 0,0 UV-I 14 W/m 24,7 km/h (4 Bft)
08.08.2014 19:52 19,6 C 17,8 C 97 % 1007,4 hPa 0,0 l/m 0 min 2 min 0,0 UV-I 13 W/m 21,3 km/h (4 Bft)
08.08.2014 19:54 19,6 C 17,8 C 97 % 1007,5 hPa 0,2 l/m 0 min 2 min 0,0 UV-I 12 W/m 31,7 km/h (5 Bft)
08.08.2014 19:56 19,6 C 17,8 C 97 % 1007,4 hPa 0,0 l/m 0 min 2 min 0,0 UV-I 11 W/m 24,7 km/h (4 Bft)
08.08.2014 19:58 19,6 C 17,8 C 97 % 1007,4 hPa 0,0 l/m 0 min 2 min 0,0 UV-I 11 W/m 17,7 km/h (3 Bft)
08.08.2014 20:00 19,6 C 17,8 C 97 % 1007,3 hPa 0,0 l/m 0 min 2 min 0,0 UV-I 11 W/m 17,7 km/h (3 Bft)
08.08.2014 20:02 19,6 C 17,8 C 97 % 1007,3 hPa 0,0 l/m 0 min 2 min 0,0 UV-I 11 W/m 14,2 km/h (3 Bft)
08.08.2014 20:04 19,6 C 17,8 C 97 % 1007,2 hPa 0,2 l/m 0 min 2 min 0,0 UV-I 12 W/m 24,7 km/h (4 Bft)
08.08.2014 20:06 19,5 C 17,8 C 97 % 1007,2 hPa 0,0 l/m 0 min 0 min 0,0 UV-I 12 W/m 24,7 km/h (4 Bft)
08.08.2014 20:08 19,5 C 17,8 C 97 % 1007,1 hPa 0,0 l/m 0 min 0 min 0,0 UV-I 12 W/m 21,3 km/h (4 Bft)
08.08.2014 20:10 19,5 C 17,8 C 97 % 1007,1 hPa 0,0 l/m 0 min 2 min 0,0 UV-I 12 W/m 21,3 km/h (4 Bft)
08.08.2014 20:12 19,5 C 17,8 C 97 % 1007,1 hPa 0,0 l/m 0 min 2 min 0,0 UV-I 11 W/m 21,3 km/h (4 Bft)
08.08.2014 20:14 19,5 C 17,8 C 97 % 1007,0 hPa 0,0 l/m 0 min 2 min 0,0 UV-I 11 W/m 21,3 km/h (4 Bft)
08.08.2014 20:16 19,5 C 17,8 C 97 % 1006,9 hPa 0,0 l/m 0 min 2 min 0,0 UV-I 11 W/m 17,7 km/h (3 Bft)
08.08.2014 20:18 19,5 C 17,8 C 97 % 1006,9 hPa 0,0 l/m 0 min 2 min 0,0 UV-I 11 W/m 21,3 km/h (4 Bft)
08.08.2014 20:20 19,5 C 17,8 C 97 % 1006,9 hPa 0,0 l/m 0 min 2 min 0,0 UV-I 10 W/m 14,2 km/h (3 Bft)
08.08.2014 20:22 19,5 C 17,8 C 97 % 1006,9 hPa 0,0 l/m 0 min 2 min 0,0 UV-I 9 W/m 28,2 km/h (4 Bft)
08.08.2014 20:24 19,5 C 17,8 C 97 % 1006,9 hPa 0,0 l/m 0 min 2 min 0,0 UV-I 7 W/m 17,7 km/h (3 Bft)
08.08.2014 20:26 19,5 C 17,8 C 97 % 1006,8 hPa 0,0 l/m 0 min 2 min 0,0 UV-I 5 W/m 17,7 km/h (3 Bft)
08.08.2014 20:28 19,5 C 17,8 C 98 % 1006,8 hPa 0,0 l/m 0 min 0 min 0,0 UV-I 5 W/m 17,7 km/h (3 Bft)
08.08.2014 20:30 19,5 C 17,8 C 98 % 1006,7 hPa 0,0 l/m 0 min 0 min 0,0 UV-I 5 W/m 28,2 km/h (4 Bft)
08.08.2014 20:32 19,5 C 17,8 C 98 % 1006,8 hPa 0,0 l/m 0 min 0 min 0,0 UV-I 5 W/m 17,7 km/h (3 Bft)
08.08.2014 20:34 19,5 C 17,8 C 98 % 1006,8 hPa 0,0 l/m 0 min 2 min 0,0 UV-I 5 W/m 21,3 km/h (4 Bft)
08.08.2014 20:36 19,5 C 17,8 C 98 % 1006,7 hPa 0,0 l/m 0 min 2 min 0,0 UV-I 5 W/m 24,7 km/h (4 Bft)
08.08.2014 20:38 19,5 C 17,8 C 98 % 1006,7 hPa 0,0 l/m 0 min 2 min 0,0 UV-I 5 W/m 21,3 km/h (4 Bft)
08.08.2014 20:40 19,5 C 17,8 C 98 % 1006,7 hPa 0,0 l/m 0 min 2 min 0,0 UV-I 5 W/m 31,7 km/h (5 Bft)
08.08.2014 20:42 19,5 C 17,8 C 98 % 1006,7 hPa 0,0 l/m 0 min 2 min 0,0 UV-I 5 W/m 24,7 km/h (4 Bft)
08.08.2014 20:44 19,5 C 17,8 C 98 % 1006,7 hPa 0,0 l/m 0 min 2 min 0,0 UV-I 5 W/m 24,7 km/h (4 Bft)
08.08.2014 20:46 19,5 C 17,8 C 98 % 1006,6 hPa 0,2 l/m 0 min 2 min 0,0 UV-I 4 W/m 28,2 km/h (4 Bft)
08.08.2014 20:48 19,5 C 17,8 C 98 % 1006,6 hPa 0,0 l/m 0 min 2 min 0,0 UV-I 0 W/m 21,3 km/h (4 Bft)
08.08.2014 20:50 19,5 C 17,8 C 98 % 1006,6 hPa 0,2 l/m 0 min 2 min 0,0 UV-I 0 W/m 17,7 km/h (3 Bft)
08.08.2014 20:52 19,5 C 17,8 C 98 % 1006,6 hPa 0,0 l/m 0 min 2 min 0,0 UV-I 0 W/m 24,7 km/h (4 Bft)
08.08.2014 20:54 19,5 C 17,8 C 98 % 1006,6 hPa 0,2 l/m 0 min 2 min 0,0 UV-I 0 W/m 17,7 km/h (3 Bft)
08.08.2014 20:56 19,5 C 17,8 C 98 % 1006,7 hPa 0,2 l/m 0 min 2 min 0,0 UV-I 0 W/m 28,2 km/h (4 Bft)
08.08.2014 20:58 19,5 C 17,8 C 98 % 1006,6 hPa 0,2 l/m 0 min 2 min 0,0 UV-I 0 W/m 21,3 km/h (4 Bft)
08.08.2014 21:00 19,5 C 17,8 C 98 % 1006,6 hPa 0,0 l/m 0 min 2 min 0,0 UV-I 0 W/m 14,2 km/h (3 Bft)
08.08.2014 21:02 19,4 C 17,8 C 98 % 1006,5 hPa 0,0 l/m 0 min 2 min 0,0 UV-I 0 W/m 24,7 km/h (4 Bft)
08.08.2014 21:04 19,4 C 17,8 C 98 % 1006,4 hPa 0,2 l/m 0 min 2 min 0,0 UV-I 0 W/m 28,2 km/h (4 Bft)
08.08.2014 21:06 19,4 C 17,8 C 98 % 1006,4 hPa 0,0 l/m 0 min 2 min 0,0 UV-I 0 W/m 21,3 km/h (4 Bft)
08.08.2014 21:08 19,4 C 17,8 C 98 % 1006,4 hPa 0,2 l/m 0 min 2 min 0,0 UV-I 0 W/m 31,7 km/h (5 Bft)
08.08.2014 21:10 19,4 C 17,8 C 98 % 1006,3 hPa 0,0 l/m 0 min 2 min 0,0 UV-I 0 W/m 24,7 km/h (4 Bft)
08.08.2014 21:12 19,4 C 17,8 C 98 % 1006,4 hPa 0,0 l/m 0 min 2 min 0,0 UV-I 0 W/m 17,7 km/h (3 Bft)
08.08.2014 21:14 19,4 C 17,8 C 98 % 1006,3 hPa 0,2 l/m 0 min 2 min 0,0 UV-I 0 W/m 28,2 km/h (4 Bft)
08.08.2014 21:16 19,4 C 17,8 C 98 % 1006,3 hPa 0,2 l/m 0 min 2 min 0,0 UV-I 0 W/m 24,7 km/h (4 Bft)
08.08.2014 21:18 19,4 C 17,8 C 98 % 1006,3 hPa 0,0 l/m 0 min 2 min 0,0 UV-I 0 W/m 17,7 km/h (3 Bft)
08.08.2014 21:20 19,3 C 17,8 C 98 % 1006,3 hPa 0,2 l/m 0 min 2 min 0,0 UV-I 0 W/m 17,7 km/h (3 Bft)
08.08.2014 21:22 19,3 C 17,8 C 98 % 1006,3 hPa 0,2 l/m 0 min 2 min 0,0 UV-I 0 W/m 28,2 km/h (4 Bft)
08.08.2014 21:24 19,3 C 17,8 C 98 % 1006,2 hPa 0,0 l/m 0 min 2 min 0,0 UV-I 0 W/m 28,2 km/h (4 Bft)
08.08.2014 21:26 19,3 C 17,8 C 98 % 1006,2 hPa 0,0 l/m 0 min 2 min 0,0 UV-I 0 W/m 24,7 km/h (4 Bft)
08.08.2014 21:28 19,3 C 17,8 C 98 % 1006,2 hPa 0,2 l/m 0 min 2 min 0,0 UV-I 0 W/m 38,9 km/h (6 Bft)
08.08.2014 21:30 19,3 C 17,8 C 98 % 1006,1 hPa 0,2 l/m 0 min 2 min 0,0 UV-I 0 W/m 31,7 km/h (5 Bft)
08.08.2014 21:32 19,3 C 17,8 C 98 % 1006,0 hPa 0,0 l/m 0 min 2 min 0,0 UV-I 0 W/m 21,3 km/h (4 Bft)
08.08.2014 21:34 19,3 C 17,8 C 98 % 1006,0 hPa 0,0 l/m 0 min 2 min 0,0 UV-I 0 W/m 28,2 km/h (4 Bft)
08.08.2014 21:36 19,3 C 17,8 C 98 % 1006,0 hPa 0,0 l/m 0 min 2 min 0,0 UV-I 0 W/m 24,7 km/h (4 Bft)
08.08.2014 21:38 19,3 C 17,8 C 98 % 1006,0 hPa 0,0 l/m 0 min 2 min 0,0 UV-I 0 W/m 31,7 km/h (5 Bft)
08.08.2014 21:40 19,3 C 17,8 C 98 % 1005,9 hPa 0,2 l/m 0 min 2 min 0,0 UV-I 0 W/m 24,7 km/h (4 Bft)
08.08.2014 21:42 19,3 C 17,8 C 98 % 1005,9 hPa 0,0 l/m 0 min 2 min 0,0 UV-I 0 W/m 38,9 km/h (6 Bft)
08.08.2014 21:44 19,3 C 17,8 C 98 % 1005,8 hPa 0,0 l/m 0 min 2 min 0,0 UV-I 0 W/m 28,2 km/h (4 Bft)
08.08.2014 21:46 19,2 C 17,8 C 98 % 1005,7 hPa 0,0 l/m 0 min 0 min 0,0 UV-I 0 W/m 35,4 km/h (5 Bft)
08.08.2014 21:48 19,2 C 17,8 C 98 % 1005,8 hPa 0,0 l/m 0 min 0 min 0,0 UV-I 0 W/m 28,2 km/h (4 Bft)
08.08.2014 21:50 19,2 C 17,8 C 98 % 1005,7 hPa 0,0 l/m 0 min 2 min 0,0 UV-I 0 W/m 24,7 km/h (4 Bft)
08.08.2014 21:52 19,2 C 17,8 C 98 % 1005,7 hPa 0,0 l/m 0 min 2 min 0,0 UV-I 0 W/m 21,3 km/h (4 Bft)
08.08.2014 21:54 19,2 C 17,8 C 98 % 1005,7 hPa 0,0 l/m 0 min 2 min 0,0 UV-I 0 W/m 17,7 km/h (3 Bft)
08.08.2014 21:56 19,2 C 17,8 C 98 % 1005,6 hPa 0,0 l/m 0 min 2 min 0,0 UV-I 0 W/m 21,3 km/h (4 Bft)
08.08.2014 21:58 19,3 C 17,8 C 98 % 1005,6 hPa 0,0 l/m 0 min 2 min 0,0 UV-I 0 W/m 17,7 km/h (3 Bft)
08.08.2014 22:00 19,3 C 17,8 C 98 % 1005,6 hPa 0,0 l/m 0 min 2 min 0,0 UV-I 0 W/m 17,7 km/h (3 Bft)
08.08.2014 22:02 19,3 C 17,8 C 98 % 1005,6 hPa 0,0 l/m 0 min 2 min 0,0 UV-I 0 W/m 10,7 km/h (2 Bft)
08.08.2014 22:04 19,2 C 17,8 C 98 % 1005,6 hPa 0,0 l/m 0 min 2 min 0,0 UV-I 0 W/m 17,7 km/h (3 Bft)
08.08.2014 22:06 19,3 C 17,8 C 98 % 1005,6 hPa 0,0 l/m 0 min 2 min 0,0 UV-I 0 W/m 21,3 km/h (4 Bft)
08.08.2014 22:08 19,3 C 17,8 C 98 % 1005,6 hPa 0,0 l/m 0 min 2 min 0,0 UV-I 0 W/m 17,7 km/h (3 Bft)
08.08.2014 22:10 19,2 C 17,8 C 98 % 1005,6 hPa 0,0 l/m 0 min 2 min 0,0 UV-I 0 W/m 21,3 km/h (4 Bft)
08.08.2014 22:12 19,2 C 17,8 C 98 % 1005,6 hPa 0,2 l/m 0 min 2 min 0,0 UV-I 0 W/m 21,3 km/h (4 Bft)
08.08.2014 22:14 19,2 C 17,8 C 98 % 1005,6 hPa 0,0 l/m 0 min 2 min 0,0 UV-I 0 W/m 24,7 km/h (4 Bft)
08.08.2014 22:16 19,2 C 17,8 C 98 % 1005,6 hPa 0,0 l/m 0 min 2 min 0,0 UV-I 0 W/m 17,7 km/h (3 Bft)
08.08.2014 22:18 19,2 C 17,8 C 98 % 1005,6 hPa 0,0 l/m 0 min 2 min 0,0 UV-I 0 W/m 17,7 km/h (3 Bft)
08.08.2014 22:20 19,2 C 17,8 C 98 % 1005,6 hPa 0,0 l/m 0 min 0 min 0,0 UV-I 0 W/m 14,2 km/h (3 Bft)
08.08.2014 22:22 19,2 C 17,8 C 98 % 1005,6 hPa 0,0 l/m 0 min 0 min 0,0 UV-I 0 W/m 10,7 km/h (2 Bft)
08.08.2014 22:24 19,2 C 17,8 C 98 % 1005,7 hPa 0,0 l/m 0 min 0 min 0,0 UV-I 0 W/m 7,1 km/h (2 Bft)
08.08.2014 22:26 19,2 C 17,8 C 98 % 1005,6 hPa 0,0 l/m 0 min 0 min 0,0 UV-I 0 W/m 0,0 km/h (0 Bft)
08.08.2014 22:28 19,2 C 17,8 C 98 % 1005,6 hPa 0,0 l/m 0 min 0 min 0,0 UV-I 0 W/m 3,5 km/h (1 Bft)
08.08.2014 22:30 19,2 C 17,8 C 98 % 1005,6 hPa 0,0 l/m 0 min 0 min 0,0 UV-I 0 W/m 0,0 km/h (0 Bft)
08.08.2014 22:32 19,2 C 17,8 C 98 % 1005,6 hPa 0,0 l/m 0 min 2 min 0,0 UV-I 0 W/m 17,7 km/h (3 Bft)
08.08.2014 22:34 19,2 C 17,8 C 98 % 1005,6 hPa 0,0 l/m 0 min 2 min 0,0 UV-I 0 W/m 17,7 km/h (3 Bft)
08.08.2014 22:36 19,2 C 17,8 C 98 % 1005,6 hPa 0,0 l/m 0 min 2 min 0,0 UV-I 0 W/m 17,7 km/h (3 Bft)
08.08.2014 22:38 19,2 C 17,8 C 98 % 1005,6 hPa 0,0 l/m 0 min 2 min 0,0 UV-I 0 W/m 17,7 km/h (3 Bft)
08.08.2014 22:40 19,2 C 17,8 C 98 % 1005,6 hPa 0,0 l/m 0 min 2 min 0,0 UV-I 0 W/m 10,7 km/h (2 Bft)
08.08.2014 22:42 19,2 C 17,8 C 98 % 1005,6 hPa 0,0 l/m 0 min 0 min 0,0 UV-I 0 W/m 10,7 km/h (2 Bft)
08.08.2014 22:44 19,2 C 17,8 C 98 % 1005,6 hPa 0,0 l/m 0 min 2 min 0,0 UV-I 0 W/m 17,7 km/h (3 Bft)
08.08.2014 22:46 19,1 C 17,8 C 98 % 1005,7 hPa 0,0 l/m 0 min 2 min 0,0 UV-I 0 W/m 10,7 km/h (2 Bft)
08.08.2014 22:48 19,1 C 17,8 C 98 % 1005,7 hPa 0,0 l/m 0 min 0 min 0,0 UV-I 0 W/m 3,5 km/h (1 Bft)
08.08.2014 22:50 19,1 C 17,8 C 98 % 1005,6 hPa 0,0 l/m 0 min 0 min 0,0 UV-I 0 W/m 21,3 km/h (4 Bft)
08.08.2014 22:52 19,1 C 17,8 C 98 % 1005,6 hPa 0,0 l/m 0 min 0 min 0,0 UV-I 0 W/m 28,2 km/h (4 Bft)
08.08.2014 22:54 19,1 C 17,8 C 98 % 1005,5 hPa 0,0 l/m 0 min 2 min 0,0 UV-I 0 W/m 28,2 km/h (4 Bft)
08.08.2014 22:56 19,1 C 17,8 C 98 % 1005,5 hPa 0,0 l/m 0 min 2 min 0,0 UV-I 0 W/m 17,7 km/h (3 Bft)
08.08.2014 22:58 19,1 C 17,8 C 98 % 1005,5 hPa 0,0 l/m 0 min 2 min 0,0 UV-I 0 W/m 17,7 km/h (3 Bft)
08.08.2014 23:00 19,1 C 17,8 C 98 % 1005,4 hPa 0,0 l/m 0 min 0 min 0,0 UV-I 0 W/m 17,7 km/h (3 Bft)
08.08.2014 23:02 19,1 C 17,8 C 98 % 1005,4 hPa 0,0 l/m 0 min 0 min 0,0 UV-I 0 W/m 17,7 km/h (3 Bft)
08.08.2014 23:04 19,1 C 17,8 C 98 % 1005,3 hPa 0,0 l/m 0 min 0 min 0,0 UV-I 0 W/m 21,3 km/h (4 Bft)
08.08.2014 23:06 19,1 C 17,8 C 98 % 1005,3 hPa 0,0 l/m 0 min 0 min 0,0 UV-I 0 W/m 21,3 km/h (4 Bft)
08.08.2014 23:08 19,1 C 17,8 C 98 % 1005,1 hPa 0,0 l/m 0 min 2 min 0,0 UV-I 0 W/m 17,7 km/h (3 Bft)
08.08.2014 23:10 19,1 C 17,8 C 98 % 1005,1 hPa 0,0 l/m 0 min 0 min 0,0 UV-I 0 W/m 17,7 km/h (3 Bft)
08.08.2014 23:12 19,1 C 17,8 C 98 % 1005,1 hPa 0,0 l/m 0 min 0 min 0,0 UV-I 0 W/m 24,7 km/h (4 Bft)
08.08.2014 23:14 19,1 C 17,8 C 98 % 1005,1 hPa 0,0 l/m 0 min 0 min 0,0 UV-I 0 W/m 24,7 km/h (4 Bft)
08.08.2014 23:16 19,1 C 17,8 C 98 % 1005,1 hPa 0,0 l/m 0 min 0 min 0,0 UV-I 0 W/m 17,7 km/h (3 Bft)
08.08.2014 23:18 19,1 C 17,8 C 98 % 1005,1 hPa 0,0 l/m 0 min 0 min 0,0 UV-I 0 W/m 28,2 km/h (4 Bft)
08.08.2014 23:20 19,1 C 17,8 C 98 % 1005,1 hPa 0,0 l/m 0 min 2 min 0,0 UV-I 0 W/m 3,5 km/h (1 Bft)
08.08.2014 23:22 19,2 C 17,8 C 98 % 1005,0 hPa 0,0 l/m 0 min 0 min 0,0 UV-I 0 W/m 0,0 km/h (0 Bft)
08.08.2014 23:24 19,2 C 17,8 C 98 % 1005,1 hPa 0,0 l/m 0 min 0 min 0,0 UV-I 0 W/m 21,3 km/h (4 Bft)
08.08.2014 23:26 19,2 C 17,8 C 98 % 1005,1 hPa 0,0 l/m 0 min 0 min 0,0 UV-I 0 W/m 17,7 km/h (3 Bft)
08.08.2014 23:28 19,2 C 17,8 C 98 % 1005,1 hPa 0,0 l/m 0 min 2 min 0,0 UV-I 0 W/m 3,5 km/h (1 Bft)
08.08.2014 23:30 19,2 C 17,8 C 98 % 1005,0 hPa 0,2 l/m 0 min 2 min 0,0 UV-I 0 W/m 3,5 km/h (1 Bft)
08.08.2014 23:32 19,2 C 17,8 C 98 % 1005,1 hPa 0,0 l/m 0 min 2 min 0,0 UV-I 0 W/m 24,7 km/h (4 Bft)
08.08.2014 23:34 19,2 C 17,8 C 98 % 1005,1 hPa 0,2 l/m 0 min 2 min 0,0 UV-I 0 W/m 24,7 km/h (4 Bft)
08.08.2014 23:36 19,2 C 17,8 C 98 % 1005,0 hPa 0,2 l/m 0 min 2 min 0,0 UV-I 0 W/m 24,7 km/h (4 Bft)
08.08.2014 23:38 19,2 C 17,8 C 98 % 1004,9 hPa 1,2 l/m 0 min 2 min 0,0 UV-I 0 W/m 31,7 km/h (5 Bft)
08.08.2014 23:40 19,2 C 17,8 C 98 % 1004,7 hPa 0,2 l/m 0 min 2 min 0,0 UV-I 0 W/m 42,4 km/h (6 Bft)
08.08.2014 23:42 19,2 C 17,8 C 98 % 1004,8 hPa 0,0 l/m 0 min 2 min 0,0 UV-I 0 W/m 60,2 km/h (7 Bft)
08.08.2014 23:44 19,2 C 17,8 C 98 % 1004,8 hPa 0,0 l/m 0 min 0 min 0,0 UV-I 0 W/m 24,7 km/h (4 Bft)
08.08.2014 23:46 19,2 C 17,8 C 98 % 1004,8 hPa 0,0 l/m 0 min 0 min 0,0 UV-I 0 W/m 28,2 km/h (4 Bft)
08.08.2014 23:48 19,2 C 17,8 C 98 % 1004,8 hPa 0,0 l/m 0 min 0 min 0,0 UV-I 0 W/m 31,7 km/h (5 Bft)
08.08.2014 23:50 19,2 C 17,8 C 98 % 1004,8 hPa 0,0 l/m 0 min 0 min 0,0 UV-I 0 W/m 31,7 km/h (5 Bft)
08.08.2014 23:52 19,2 C 17,8 C 98 % 1004,7 hPa 0,0 l/m 0 min 0 min 0,0 UV-I 0 W/m 14,2 km/h (3 Bft)
08.08.2014 23:54 19,2 C 17,8 C 98 % 1004,6 hPa 0,0 l/m 0 min 0 min 0,0 UV-I 0 W/m 10,7 km/h (2 Bft)
08.08.2014 23:56 19,2 C 17,8 C 98 % 1004,6 hPa 0,0 l/m 0 min 0 min 0,0 UV-I 0 W/m 21,3 km/h (4 Bft)
08.08.2014 23:58 19,2 C 17,8 C 98 % 1004,6 hPa 0,0 l/m 0 min 0 min 0,0 UV-I 0 W/m 14,2 km/h (3 Bft)
_ Min-Zeit 06:16 04:10 13:02 23:54 - - - - - 00:00
Minimum _ 16,4 C 15,0 C 64 % 1004,6 hPa - - - - - 0,0 km/h (0 Bft)
_ Max-Zeit 13:00 12:38 17:24 00:00 16:04 07:02 10:48 12:38 12:38 16:02
Maximum _ 26,6 C 27,8 C 98 % 1015,2 hPa 1,8 l/m 2 min 2 min 4,9 UV-I 885 W/m 60,2 km/h
W-SW (7 Bft)
Durchschnitt _ 19,9 C 18,7 C 90 % 1011,2 hPa #18,4 l/m #3:29 h #5:53 h 1,7 UV-I 175 W/m 13,6 km/h (3 Bft)
© 2014 W. Hausmann